Latitude: N 50° 09' 49" Longitude: W 05° 11' 53" Elevation: 168m ASL

There are 20 visitors online

Adverts

<- Previous Day | Today | Next Day ->

All Data for 19 March 2018

Time
A - D
Temp
A - D
Dew Point
A - D
Humidity
A - D
Pressure
A - D
Wind
A - D
Wind Dir Gust
A - D
Rain Rate
A - D
Rain Total
00:00 -1.6 -2.4 94 1007.4 9.8 NE 13.0 0.0 0.0
00:02 -1.6 -2.4 94 1007.5 8.3 NE 13.0 0.0 0.0
00:04 -1.6 -2.4 94 1007.6 6.0 N 10.7 0.0 0.0
00:06 -1.6 -2.4 94 1007.6 9.2 N 9.8 0.0 0.0
00:07 -1.6 -2.4 94 1007.5 9.2 NE 9.8 0.0 0.0
00:09 -1.6 -2.4 94 1007.6 7.6 NE 9.8 0.0 0.0
00:11 -1.6 -2.3 95 1007.6 9.2 N 9.8 0.0 0.0
00:12 -1.6 -2.3 95 1007.6 9.2 N 13.6 0.0 0.0
00:14 -1.6 -2.3 95 1007.6 9.8 NE 13.6 0.0 0.0
00:15 -1.6 -2.3 95 1007.5 12.1 N 13.6 0.0 0.0
00:17 -1.6 -2.3 95 1007.6 9.8 N 13.6 0.0 0.0
00:18 -1.6 -2.3 95 1007.5 12.1 N 13.6 0.0 0.0
00:20 -1.6 -2.3 95 1007.5 9.8 N 13.6 0.0 0.0
00:22 -1.6 -2.3 95 1007.5 9.8 NE 12.1 0.0 0.0
00:23 -1.6 -2.3 95 1007.5 9.2 NE 13.0 0.0 0.0
00:25 -1.6 -2.3 95 1007.6 10.7 N 13.0 0.0 0.0
00:27 -1.6 -2.3 95 1007.6 11.4 NE 15.2 0.0 0.0
00:28 -1.7 -2.4 95 1007.4 7.6 E 15.2 0.0 0.0
00:31 -1.7 -2.4 95 1007.5 7.6 N 15.2 0.0 0.0
00:32 -1.7 -2.4 95 1007.5 8.3 NE 15.2 0.0 0.0
00:34 -1.7 -2.4 95 1007.5 8.3 N 15.2 0.0 0.0
00:36 -1.7 -2.4 95 1007.6 8.3 N 12.1 0.0 0.0
00:37 -1.7 -2.4 95 1007.6 8.3 N 12.1 0.0 0.0
00:38 -1.7 -2.4 95 1007.5 9.2 N 10.7 0.0 0.0
00:40 -1.7 -2.4 95 1007.4 9.8 NE 10.7 0.0 0.0
00:41 -1.7 -2.4 95 1007.6 11.4 NE 11.4 0.0 0.0
00:43 -1.7 -2.4 95 1007.7 10.7 N 11.4 0.0 0.0
00:44 -1.7 -2.4 95 1007.6 7.6 NE 11.4 0.0 0.0
00:46 -1.7 -2.4 95 1007.7 6.9 N 11.4 0.0 0.0
00:47 -1.7 -2.4 95 1007.7 6.9 N 11.4 0.0 0.0
00:49 -1.7 -2.4 95 1007.8 9.2 N 11.4 0.0 0.0
00:50 -1.7 -2.4 95 1007.6 10.7 NE 11.4 0.0 0.0
00:51 -1.7 -2.4 95 1007.7 6.9 N 11.4 0.0 0.0
00:52 -1.7 -2.4 95 1007.7 10.7 N 10.7 0.0 0.0
00:53 -1.7 -2.4 95 1007.7 9.8 SW 10.7 0.0 0.0
00:54 -1.7 -2.4 95 1007.7 9.8 SW 10.7 0.0 0.0
00:55 -1.7 -2.2 96 1007.6 6.0 N 10.7 0.0 0.0
00:56 -1.7 -2.2 96 1007.7 7.6 N 10.7 0.0 0.0
00:57 -1.7 -2.2 96 1007.7 9.2 NE 10.7 0.0 0.0
00:58 -1.7 -2.2 96 1007.8 8.3 NE 10.7 0.0 0.0
00:59 -1.7 -2.2 96 1007.8 4.5 N 10.7 0.0 0.0
01:00 -1.7 -2.2 96 1007.7 8.3 NE 10.7 0.0 0.0
01:01 -1.7 -2.2 96 1007.8 9.2 N 10.7 0.0 0.0
01:02 -1.7 -2.2 96 1007.8 6.0 N 9.8 0.0 0.0
01:03 -1.7 -2.2 96 1007.8 10.7 N 10.7 0.0 0.0
01:04 -1.7 -2.2 96 1007.7 8.3 N 10.7 0.0 0.0
01:05 -1.7 -2.2 96 1007.7 6.0 N 10.7 0.0 0.0
01:06 -1.7 -2.2 96 1007.7 7.6 N 10.7 0.0 0.0
01:08 -1.7 -2.2 96 1007.8 8.3 NE 10.7 0.0 0.0
01:09 -1.7 -2.2 96 1007.9 8.3 NE 10.7 0.0 0.0
01:10 -1.7 -2.2 96 1007.7 9.2 N 11.4 0.0 0.0
01:11 -1.7 -2.2 96 1007.8 9.2 N 11.4 0.0 0.0
01:12 -1.7 -2.2 96 1008.0 7.6 NE 11.4 0.0 0.0
01:13 -1.7 -2.2 96 1007.9 8.3 N 11.4 0.0 0.0
01:14 -1.7 -2.2 96 1007.9 8.3 N 11.4 0.0 0.0
01:15 -1.7 -2.2 96 1007.8 7.6 N 11.4 0.0 0.0
01:16 -1.7 -2.2 96 1007.8 7.6 N 11.4 0.0 0.0
01:17 -1.7 -2.2 96 1007.7 9.2 NW 11.4 0.0 0.0
01:18 -1.7 -2.2 96 1007.9 7.6 NE 11.4 0.0 0.0
01:19 -1.7 -2.2 96 1007.9 8.3 N 11.4 0.0 0.0
01:20 -1.7 -2.2 96 1007.8 9.2 N 11.4 0.0 0.0
01:21 -1.7 -2.2 96 1007.8 7.6 NE 11.4 0.0 0.0
01:22 -1.7 -2.2 96 1007.9 8.3 NE 11.4 0.0 0.0
01:24 -1.7 -2.2 96 1007.9 10.7 N 10.7 0.0 0.0
01:25 -1.7 -2.2 96 1008.0 10.7 N 10.7 0.0 0.0
01:26 -1.7 -2.2 96 1007.9 8.3 NNW 10.7 0.0 0.0
01:27 -1.7 -2.2 96 1007.8 7.6 N 10.7 0.0 0.0
01:28 -1.7 -2.2 96 1007.9 8.3 N 10.7 0.0 0.0
01:29 -1.7 -2.2 96 1008.0 6.9 NE 10.7 0.0 0.0
01:30 -1.7 -2.2 96 1008.1 10.7 NE 10.7 0.0 0.0
01:31 -1.7 -2.2 96 1008.0 9.8 NE 10.7 0.0 0.0
01:32 -1.7 -2.2 96 1007.8 11.4 WSW 11.4 0.0 0.0
01:33 -1.7 -2.2 96 1008.0 9.8 N 11.4 0.0 0.0
01:34 -1.7 -2.2 96 1008.0 9.2 N 11.4 0.0 0.0
01:35 -1.7 -2.2 96 1007.8 12.1 N 12.1 0.0 0.0
01:36 -1.7 -2.2 96 1007.9 10.7 N 12.1 0.0 0.0
01:37 -1.7 -2.2 96 1007.9 10.7 NE 12.1 0.0 0.0
01:38 -1.7 -2.2 96 1008.1 8.3 NE 12.1 0.0 0.0
01:39 -1.7 -2.2 96 1007.9 12.1 NE 12.1 0.0 0.0
01:40 -1.7 -2.2 96 1007.9 7.6 N 12.1 0.0 0.0
01:41 -1.7 -2.2 96 1007.9 8.3 NE 12.1 0.0 0.0
01:43 -1.7 -2.2 96 1008.0 12.1 N 12.1 0.0 0.0
01:44 -1.7 -2.2 96 1008.0 13.0 NE 13.0 0.0 0.0
01:45 -1.8 -2.3 96 1007.7 9.8 N 13.0 0.0 0.0
01:46 -1.8 -2.3 96 1007.9 9.8 NE 13.0 0.0 0.0
01:47 -1.8 -2.3 96 1007.9 12.1 NE 13.0 0.0 0.0
01:48 -1.8 -2.3 96 1007.8 8.3 NE 13.0 0.0 0.0
01:49 -1.8 -2.3 96 1007.7 10.7 NE 13.0 0.0 0.0
01:50 -1.8 -2.3 96 1008.0 8.3 NE 13.0 0.0 0.0
01:51 -1.8 -2.3 96 1007.9 7.6 NE 13.0 0.0 0.0
01:52 -1.8 -2.3 96 1007.9 7.6 N 13.0 0.0 0.0
01:53 -1.8 -2.3 96 1007.8 6.0 N 13.0 0.0 0.0
01:54 -1.8 -2.3 96 1008.0 9.2 N 12.1 0.0 0.0
01:55 -1.8 -2.3 96 1008.0 8.3 NE 12.1 0.0 0.0
01:56 -1.8 -2.3 96 1008.0 9.2 N 12.1 0.0 0.0
01:57 -1.8 -2.3 96 1007.9 7.6 NE 12.1 0.0 0.0
01:58 -1.8 -2.3 96 1007.9 7.6 N 12.1 0.0 0.0
01:59 -1.8 -2.3 96 1007.9 8.3 N 9.2 0.0 0.0
02:01 -1.8 -2.3 96 1008.0 7.6 N 9.2 0.0 0.0
02:02 -1.8 -2.3 96 1007.9 7.6 NE 9.2 0.0 0.0
02:03 -1.8 -2.3 96 1007.9 7.6 NE 9.2 0.0 0.0
02:04 -1.8 -2.3 96 1008.0 7.6 NE 9.2 0.0 0.0
02:05 -1.8 -2.3 96 1008.0 7.6 NE 9.2 0.0 0.0
02:06 -1.8 -2.3 96 1007.8 7.6 NE 9.2 0.0 0.0
02:07 -1.8 -2.3 96 1007.9 7.6 NE 9.2 0.0 0.0
02:08 -1.8 -2.3 96 1007.9 9.8 NE 9.8 0.0 0.0
02:09 -1.8 -2.3 96 1007.9 9.8 NE 9.8 0.0 0.0
02:10 -1.8 -2.3 96 1008.1 9.8 NE 9.8 0.0 0.0
02:12 -1.9 -2.3 97 1008.1 9.8 NE 10.7 0.0 0.0
02:13 -1.9 -2.3 97 1008.2 9.2 NE 10.7 0.0 0.0
02:14 -1.9 -2.3 97 1007.9 9.2 NE 10.7 0.0 0.0
02:15 -1.9 -2.4 96 1008.1 11.4 NE 11.4 0.0 0.0
02:16 -1.9 -2.4 96 1008.2 11.4 NE 11.4 0.0 0.0
02:17 -1.9 -2.3 97 1008.1 10.7 NE 11.4 0.0 0.0
02:18 -1.9 -2.3 97 1008.1 10.7 NE 11.4 0.0 0.0
02:19 -1.9 -2.3 97 1008.1 9.2 N 11.4 0.0 0.0
02:20 -1.9 -2.3 97 1008.1 6.9 N 11.4 0.0 0.0
02:21 -1.9 -2.3 97 1008.0 6.9 N 11.4 0.0 0.0
02:22 -1.9 -2.3 97 1008.1 6.9 N 11.4 0.0 0.0
02:23 -1.9 -2.3 97 1008.1 9.2 NE 11.4 0.0 0.0
02:24 -1.9 -2.3 97 1008.0 6.0 N 11.4 0.0 0.0
02:25 -1.9 -2.3 97 1008.2 8.3 NE 11.4 0.0 0.0
02:26 -1.9 -2.3 97 1008.1 6.9 NE 10.7 0.0 0.0
02:27 -1.9 -2.3 97 1008.0 9.8 NE 10.7 0.0 0.0
02:29 -1.9 -2.3 97 1008.0 7.6 N 10.7 0.0 0.0
02:30 -1.9 -2.3 97 1007.9 6.0 N 10.7 0.0 0.0
02:31 -1.9 -2.3 97 1008.0 6.0 NE 10.7 0.0 0.0
02:32 -1.9 -2.3 97 1008.0 6.0 NE 10.7 0.0 0.0
02:33 -1.9 -2.3 97 1008.0 9.8 NE 10.7 0.0 0.0
02:34 -1.9 -2.3 97 1008.0 8.3 NE 9.8 0.0 0.0
02:35 -1.9 -2.3 97 1008.0 6.9 NE 9.8 0.0 0.0
02:36 -1.9 -2.3 97 1007.9 6.9 NE 9.8 0.0 0.0
02:37 -2.0 -2.4 97 1008.0 6.9 N 9.8 0.0 0.0
02:38 -1.9 -2.3 97 1008.0 9.8 N 9.8 0.0 0.0
02:39 -1.9 -2.3 97 1007.7 10.7 N 10.7 0.0 0.0
02:40 -1.9 -2.3 97 1007.9 7.6 N 10.7 0.0 0.0
02:41 -1.9 -2.3 97 1008.0 8.3 NE 10.7 0.0 0.0
02:42 -1.9 -2.3 97 1008.0 9.8 NE 10.7 0.0 0.0
02:43 -2.0 -2.4 97 1007.8 5.4 N 10.7 0.0 0.0
02:44 -2.0 -2.4 97 1008.1 6.9 NE 10.7 0.0 0.0
02:46 -2.0 -2.4 97 1008.1 5.4 NE 10.7 0.0 0.0
02:47 -2.0 -2.4 97 1008.1 6.9 N 10.7 0.0 0.0
02:48 -2.0 -2.4 97 1007.9 4.5 N 10.7 0.0 0.0
02:49 -1.9 -2.3 97 1007.9 5.4 N 10.7 0.0 0.0
02:50 -2.0 -2.4 97 1007.9 7.6 E 9.8 0.0 0.0
02:51 -2.0 -2.4 97 1008.1 6.9 NE 9.8 0.0 0.0
02:52 -2.0 -2.4 97 1008.2 7.6 N 9.8 0.0 0.0
02:53 -2.0 -2.4 97 1008.1 6.0 N 7.6 0.0 0.0
02:54 -2.0 -2.4 97 1008.1 6.9 N 9.2 0.0 0.0
02:55 -2.0 -2.4 97 1008.2 6.0 NE 9.2 0.0 0.0
02:56 -2.0 -2.4 97 1008.1 6.9 N 9.2 0.0 0.0
02:57 -2.0 -2.4 97 1008.2 9.2 NE 9.2 0.0 0.0
02:58 -2.0 -2.4 97 1008.2 8.3 NE 9.2 0.0 0.0
02:59 -2.0 -2.4 97 1008.2 8.3 N 9.8 0.0 0.0
03:00 -2.0 -2.4 97 1008.2 7.6 N 9.8 0.0 0.0
03:02 -2.0 -2.3 98 1008.2 7.6 N 9.8 0.0 0.0
03:03 -2.0 -2.3 98 1008.2 7.6 N 9.8 0.0 0.0
03:04 -2.0 -2.3 98 1008.1 7.6 N 9.8 0.0 0.0
03:05 -2.0 -2.3 98 1008.1 7.6 N 9.8 0.0 0.0
03:06 -2.0 -2.3 98 1008.0 7.6 N 9.8 0.0 0.0
03:07 -2.0 -2.3 98 1008.2 6.9 N 9.8 0.0 0.0
03:08 -2.0 -2.3 98 1008.2 8.3 N 9.8 0.0 0.0
03:09 -2.0 -2.3 98 1008.1 6.9 N 9.2 0.0 0.0
03:10 -2.0 -2.3 98 1008.1 8.3 N 9.2 0.0 0.0
03:11 -2.0 -2.3 98 1008.1 8.3 NE 9.2 0.0 0.0
03:12 -2.0 -2.3 98 1008.1 9.8 NE 9.8 0.0 0.0
03:13 -2.0 -2.3 98 1008.2 9.2 N 9.8 0.0 0.0
03:14 -2.0 -2.3 98 1008.1 6.9 NE 9.8 0.0 0.0
03:15 -2.0 -2.3 98 1007.9 9.8 N 9.8 0.0 0.0
03:16 -2.0 -2.3 98 1008.1 7.6 NE 9.8 0.0 0.0
03:17 -2.0 -2.3 98 1008.0 11.4 NE 11.4 0.0 0.0
03:18 -2.0 -2.3 98 1008.0 5.4 N 11.4 0.0 0.0
03:20 -2.0 -2.3 98 1008.1 11.4 N 11.4 0.0 0.0
03:21 -2.0 -2.3 98 1008.0 9.2 NE 11.4 0.0 0.0
03:22 -2.0 -2.3 98 1008.1 6.9 N 11.4 0.0 0.0
03:23 -2.0 -2.3 98 1008.0 7.6 N 11.4 0.0 0.0
03:24 -2.0 -2.3 98 1008.1 6.9 NE 11.4 0.0 0.0
03:25 -2.0 -2.3 98 1008.0 6.9 NW 11.4 0.0 0.0
03:26 -2.0 -2.3 98 1008.2 9.8 NE 11.4 0.0 0.0
03:27 -2.0 -2.3 98 1008.3 7.6 NE 11.4 0.0 0.0
03:28 -2.0 -2.3 98 1008.2 6.9 N 11.4 0.0 0.0
03:29 -2.0 -2.3 98 1008.3 6.0 NE 11.4 0.0 0.0
03:31 -2.0 -2.3 98 1008.2 9.2 NE 9.8 0.0 0.0
03:32 -2.0 -2.3 98 1008.3 9.2 N 9.8 0.0 0.0
03:33 -2.0 -2.3 98 1008.3 6.9 NE 9.8 0.0 0.0
03:34 -2.0 -2.3 98 1008.3 6.0 N 9.8 0.0 0.0
03:35 -2.0 -2.3 98 1008.2 6.9 N 9.8 0.0 0.0
03:36 -2.0 -2.3 98 1008.1 7.6 NE 9.8 0.0 0.0
03:37 -2.0 -2.3 98 1008.1 6.9 NE 9.2 0.0 0.0
03:38 -2.0 -2.3 98 1008.1 8.3 NE 9.2 0.0 0.0
03:39 -2.1 -2.4 98 1008.2 7.6 NE 9.2 0.0 0.0
03:40 -2.0 -2.3 98 1008.2 7.6 NE 9.2 0.0 0.0
03:41 -2.1 -2.4 98 1008.2 5.4 N 9.2 0.0 0.0
03:42 -2.1 -2.4 98 1008.1 7.6 N 8.3 0.0 0.0
03:43 -2.1 -2.4 98 1008.3 4.5 N 8.3 0.0 0.0
03:44 -2.1 -2.4 98 1008.3 8.3 NE 8.3 0.0 0.0
03:45 -2.1 -2.4 98 1008.4 6.9 NE 8.3 0.0 0.0
03:46 -2.1 -2.4 98 1008.3 7.6 N 8.3 0.0 0.0
03:47 -2.1 -2.4 98 1008.2 7.6 NE 8.3 0.0 0.0
03:48 -2.1 -2.4 98 1008.2 6.9 N 8.3 0.0 0.0
03:49 -2.1 -2.4 98 1008.3 6.9 N 8.3 0.0 0.0
03:51 -2.1 -2.4 98 1008.3 6.9 N 8.3 0.0 0.0
03:52 -2.1 -2.4 98 1008.4 5.4 N 8.3 0.0 0.0
03:53 -2.1 -2.4 98 1008.4 9.8 N 9.8 0.0 0.0
03:54 -2.1 -2.4 98 1008.4 9.8 N 9.8 0.0 0.0
03:55 -2.1 -2.4 98 1008.4 8.3 N 9.8 0.0 0.0
03:56 -2.1 -2.4 98 1008.3 4.5 N 9.8 0.0 0.0
03:57 -2.1 -2.4 98 1008.3 6.0 N 9.8 0.0 0.0
03:58 -2.0 -2.3 98 1008.2 6.0 NE 9.8 0.0 0.0
03:59 -2.1 -2.4 98 1008.4 6.0 NE 9.8 0.0 0.0
04:00 -2.1 -2.4 98 1008.3 6.9 N 9.8 0.0 0.0
04:01 -2.1 -2.4 98 1008.4 6.9 N 9.8 0.0 0.0
04:02 -2.1 -2.4 98 1008.4 7.6 NE 9.8 0.0 0.0
04:04 -2.1 -2.4 98 1008.3 7.6 NE 8.3 0.0 0.0
04:05 -2.1 -2.4 98 1008.4 7.6 NE 8.3 0.0 0.0
04:06 -2.1 -2.4 98 1008.3 7.6 NE 7.6 0.0 0.0
04:07 -2.1 -2.4 98 1008.5 7.6 NE 7.6 0.0 0.0
04:08 -2.0 -2.3 98 1008.6 6.0 N 7.6 0.0 0.0
04:09 -2.0 -2.1 99 1008.5 6.0 NE 7.6 0.0 0.0
04:11 -2.0 -2.1 99 1008.5 6.0 NE 7.6 0.0 0.0
04:12 -2.0 -2.3 98 1008.6 6.0 NE 7.6 0.0 0.0
04:13 -2.0 -2.3 98 1008.6 7.6 NE 7.6 0.0 0.0
04:14 -2.0 -2.3 98 1008.6 7.6 NE 7.6 0.0 0.0
04:15 -2.0 -2.1 99 1008.5 6.9 N 7.6 0.0 0.0
04:16 -2.0 -2.3 98 1008.4 5.4 N 7.6 0.0 0.0
04:17 -2.0 -2.1 99 1008.5 9.2 N 9.2 0.0 0.0
04:18 -2.0 -2.1 99 1008.5 4.5 N 9.2 0.0 0.0
04:19 -2.0 -2.1 99 1008.7 9.8 NE 9.8 0.0 0.0
04:20 -2.0 -2.1 99 1008.5 6.0 N 9.8 0.0 0.0
04:21 -2.0 -2.1 99 1008.6 6.9 N 9.8 0.0 0.0
04:22 -2.0 -2.1 99 1008.5 6.0 N 9.8 0.0 0.0
04:23 -2.0 -2.1 99 1008.6 4.5 N 9.8 0.0 0.0
04:24 -2.0 -2.1 99 1008.5 5.4 N 9.8 0.0 0.0
04:25 -2.0 -2.1 99 1008.6 6.9 NE 9.8 0.0 0.0
04:26 -2.0 -2.1 99 1008.6 6.0 NE 9.8 0.0 0.0
04:27 -2.0 -2.1 99 1008.6 6.9 NE 9.8 0.0 0.0
04:29 -2.0 -2.1 99 1008.6 4.5 NE 9.8 0.0 0.0
04:30 -2.0 -2.1 99 1008.6 5.4 N 6.9 0.0 0.0
04:31 -2.0 -2.1 99 1008.5 5.4 N 6.9 0.0 0.0
04:32 -2.0 -2.1 99 1008.6 8.3 NE 8.3 0.0 0.0
04:33 -2.0 -2.1 99 1008.8 6.9 N 8.3 0.0 0.0
04:34 -2.0 -2.1 99 1008.8 6.9 N 8.3 0.0 0.0
04:35 -2.0 -2.1 99 1008.7 5.4 N 8.3 0.0 0.0
04:36 -2.0 -2.1 99 1008.8 5.4 N 8.3 0.0 0.0
04:37 -2.0 -2.1 99 1008.7 8.3 N 8.3 0.0 0.0
04:38 -2.0 -2.1 99 1008.8 6.9 N 8.3 0.0 0.0
04:39 -2.0 -2.1 99 1008.7 5.4 N 8.3 0.0 0.0
04:40 -2.0 -2.1 99 1008.7 6.0 N 8.3 0.0 0.0
04:41 -2.0 -2.1 99 1008.7 6.9 N 8.3 0.0 0.0
04:42 -2.0 -2.1 99 1008.8 3.8 N 8.3 0.0 0.0
04:43 -2.0 -2.1 99 1008.7 4.5 N 8.3 0.0 0.0
04:44 -2.0 -2.1 99 1008.7 4.5 N 8.3 0.0 0.0
04:45 -2.0 -2.1 99 1008.8 6.0 N 8.3 0.0 0.0
04:46 -2.0 -2.1 99 1008.8 6.0 NE 8.3 0.0 0.0
04:47 -2.0 -2.1 99 1008.7 7.6 NE 7.6 0.0 0.0
04:49 -2.0 -2.1 99 1008.9 5.4 N 7.6 0.0 0.0
04:50 -1.9 -2.0 99 1008.7 6.0 N 7.6 0.0 0.0
04:51 -1.9 -2.0 99 1008.8 5.4 NNE 7.6 0.0 0.0
04:52 -1.9 -2.0 99 1008.8 7.6 N 7.6 0.0 0.0
04:53 -1.9 -2.0 99 1008.9 6.9 N 7.6 0.0 0.0
04:54 -1.9 -2.0 99 1008.9 6.9 N 7.6 0.0 0.0
04:55 -2.0 -2.1 99 1008.9 6.0 N 7.6 0.0 0.0
04:56 -2.0 -2.1 99 1009.0 6.9 N 7.6 0.0 0.0
04:57 -1.9 -2.0 99 1009.0 6.9 N 12.1 0.0 0.0
04:58 -1.9 -2.0 99 1009.0 6.0 N 12.1 0.0 0.0
04:59 -1.9 -2.0 99 1008.9 6.9 NE 12.1 0.0 0.0
05:00 -1.9 -2.0 99 1008.9 4.5 NE 12.1 0.0 0.0
05:01 -1.9 -2.0 99 1008.8 6.0 N 12.1 0.0 0.0
05:02 -1.9 -2.0 99 1009.0 6.9 NW 12.1 0.0 0.0
05:03 -1.9 -2.0 99 1009.0 6.9 NW 12.1 0.0 0.0
05:04 -1.9 -2.0 99 1009.1 6.9 NW 12.1 0.0 0.0
05:05 -1.9 -2.0 99 1009.0 6.9 NW 12.1 0.0 0.0
05:06 -1.9 -2.0 99 1009.0 6.9 NW 12.1 0.0 0.0
05:07 -1.9 -2.0 99 1009.1 8.3 NE 9.2 0.0 0.0
05:09 -1.9 -2.0 99 1008.9 9.2 NE 9.8 0.0 0.0
05:10 -1.9 -2.0 99 1009.0 10.7 NE 10.7 0.0 0.0
05:11 -1.9 -2.0 99 1009.0 6.9 N 10.7 0.0 0.0
05:12 -1.9 -2.0 99 1009.1 6.0 N 10.7 0.0 0.0
05:13 -1.9 -2.0 99 1009.1 6.9 NE 10.7 0.0 0.0
05:14 -1.8 -1.9 99 1009.1 6.9 N 10.7 0.0 0.0
05:15 -1.8 -1.9 99 1009.1 7.6 N 10.7 0.0 0.0
05:16 -1.8 -1.9 99 1009.1 6.9 N 10.7 0.0 0.0
05:17 -1.8 -1.9 99 1009.2 6.9 NE 10.7 0.0 0.0
05:18 -1.8 -1.9 99 1009.2 6.0 N 10.7 0.0 0.0
05:19 -1.8 -1.9 99 1009.2 9.2 NE 10.7 0.0 0.0
05:20 -1.8 -1.9 99 1009.1 12.1 NE 12.1 0.0 0.0
05:21 -1.8 -1.9 99 1009.3 10.7 NE 12.1 0.0 0.0
05:22 -1.8 -1.9 99 1009.3 8.3 N 12.1 0.0 0.0
05:23 -1.8 -1.9 99 1009.3 9.2 N 12.1 0.0 0.0
05:25 -1.8 -1.9 99 1009.1 10.7 N 12.1 0.0 0.0
05:26 -1.8 -1.9 99 1009.2 9.8 N 12.1 0.0 0.0
05:27 -1.8 -1.9 99 1009.4 11.4 NE 12.1 0.0 0.0
05:28 -1.8 -1.9 99 1009.4 6.9 N 12.1 0.0 0.0
05:29 -1.8 -1.9 99 1009.3 9.2 N 12.1 0.0 0.0
05:30 -1.7 -1.8 99 1009.3 6.9 N 12.1 0.0 0.0
05:31 -1.7 -1.8 99 1009.2 6.9 N 11.4 0.0 0.0
05:32 -1.7 -1.8 99 1009.3 8.3 N 11.4 0.0 0.0
05:33 -1.7 -1.8 99 1009.2 8.3 N 11.4 0.0 0.0
05:34 -1.7 -1.8 99 1009.3 9.2 NE 11.4 0.0 0.0
05:35 -1.7 -1.8 99 1009.4 10.7 NE 11.4 0.0 0.0
05:36 -1.7 -1.8 99 1009.3 6.0 NE 11.4 0.0 0.0
05:37 -1.7 -1.8 99 1009.4 6.0 E 10.7 0.0 0.0
05:38 -1.7 -1.8 99 1009.3 9.2 N 10.7 0.0 0.0
05:39 -1.7 -1.8 99 1009.4 6.9 E 10.7 0.0 0.0
05:40 -1.7 -1.8 99 1009.3 9.2 NE 10.7 0.0 0.0
05:41 -1.7 -1.8 99 1009.4 9.2 NE 10.7 0.0 0.0
05:42 -1.7 -1.8 99 1009.5 7.6 NE 10.7 0.0 0.0
05:43 -1.7 -1.8 99 1009.2 7.6 NNE 10.7 0.0 0.0
05:45 -1.7 -1.8 99 1009.4 8.3 NE 10.7 0.0 0.0
05:46 -1.7 -1.8 99 1009.3 8.3 NE 9.2 0.0 0.0
05:47 -1.7 -1.8 99 1009.4 10.7 N 10.7 0.0 0.0
05:48 -1.7 -1.8 99 1009.3 7.6 N 10.7 0.0 0.0
05:49 -1.7 -1.8 99 1009.3 10.7 N 10.7 0.0 0.0
05:50 -1.6 -1.7 99 1009.4 11.4 NE 12.1 0.0 0.0
05:51 -1.7 -1.8 99 1009.3 11.4 N 12.1 0.0 0.0
05:52 -1.6 -1.7 99 1009.4 7.6 NE 12.1 0.0 0.0
05:53 -1.6 -1.7 99 1009.4 13.0 NE 13.0 0.0 0.0
05:54 -1.6 -1.7 99 1009.5 13.0 NE 13.0 0.0 0.0
05:55 -1.6 -1.7 99 1009.5 11.4 NW 13.0 0.0 0.0
05:56 -1.6 -1.7 99 1009.6 11.4 N 13.0 0.0 0.0
05:57 -1.6 -1.7 99 1009.5 10.7 NE 13.0 0.0 0.0
05:58 -1.6 -1.7 99 1009.6 10.7 N 13.0 0.0 0.0
05:59 -1.6 -1.7 99 1009.4 9.2 N 13.0 0.0 0.0
06:00 -1.6 -1.7 99 1009.6 9.2 N 13.0 0.0 0.0
06:01 -1.6 -1.7 99 1009.7 9.2 N 13.0 0.0 0.0
06:02 -1.6 -1.7 99 1009.7 5.4 NE 13.0 0.0 0.0
06:03 -1.6 -1.7 99 1009.8 5.4 NE 13.0 0.0 0.0
06:04 -1.6 -1.7 99 1009.8 5.4 NE 13.0 0.0 0.0
06:05 -1.6 -1.7 99 1009.7 5.4 NE 13.0 0.0 0.0
06:06 -1.6 -1.7 99 1009.7 5.4 NE 13.0 0.0 0.0
06:07 -1.6 -1.7 99 1009.7 5.4 NE 10.7 0.0 0.0
06:08 -1.6 -1.7 99 1009.8 6.0 NE 10.7 0.0 0.0
06:09 -1.6 -1.7 99 1009.7 6.9 NE 9.2 0.0 0.0
06:11 -1.6 -1.7 99 1009.8 7.6 N 9.2 0.0 0.0
06:12 -1.6 -1.7 99 1009.9 5.4 N 8.3 0.0 0.0
06:14 -1.6 -1.7 99 1009.8 9.8 NE 9.8 0.0 0.0
06:15 -1.6 -1.7 99 1009.8 6.0 NE 9.8 0.0 0.0
06:16 -1.6 -1.7 99 1009.8 7.6 N 9.8 0.0 0.0
06:17 -1.6 -1.7 99 1009.8 6.9 NE 9.8 0.0 0.0
06:18 -1.6 -1.7 99 1010.0 7.6 NE 9.8 0.0 0.0
06:19 -1.6 -1.7 99 1009.9 6.0 NE 9.8 0.0 0.0
06:20 -1.6 -1.7 99 1010.0 12.1 NE 12.1 0.0 0.0
06:21 -1.5 -1.6 99 1009.9 6.9 NE 12.1 0.0 0.0
06:22 -1.6 -1.7 99 1010.1 9.2 N 12.1 0.0 0.0
06:23 -1.6 -1.7 99 1010.0 9.8 NE 12.1 0.0 0.0
06:24 -1.6 -1.7 99 1010.1 7.6 NE 12.1 0.0 0.0
06:25 -1.6 -1.7 99 1010.0 9.2 NE 12.1 0.0 0.0
06:26 -1.6 -1.7 99 1010.1 9.8 NE 12.1 0.0 0.0
06:27 -1.6 -1.9 98 1010.1 6.0 N 12.1 0.0 0.0
06:28 -1.5 -1.8 98 1010.1 8.3 N 12.1 0.0 0.0
06:29 -1.6 -1.7 99 1010.1 10.7 N 12.1 0.0 0.0
06:30 -1.5 -1.6 99 1010.3 10.7 NE 10.7 0.0 0.0
06:31 -1.5 -1.6 99 1010.2 13.0 N 13.0 0.0 0.0
06:32 -1.5 -1.8 98 1010.3 8.3 NE 13.0 0.0 0.0
06:33 -1.5 -1.6 99 1010.3 13.0 N 13.0 0.0 0.0
06:34 -1.5 -1.8 98 1010.2 12.1 NE 13.0 0.0 0.0
06:35 -1.5 -1.8 98 1010.3 12.1 N 13.0 0.0 0.0
06:36 -1.5 -1.6 99 1010.2 10.7 NE 13.0 0.0 0.0
06:37 -1.5 -1.8 98 1010.4 13.6 N 13.6 0.0 0.0
06:38 -1.5 -1.8 98 1010.3 13.6 NE 13.6 0.0 0.0
06:39 -1.5 -1.8 98 1010.3 12.1 N 13.6 0.0 0.0
06:40 -1.5 -1.8 98 1010.5 11.4 WSW 13.6 0.0 0.0
06:41 -1.4 -1.7 98 1010.4 9.2 NW 13.6 0.0 0.0
06:42 -1.4 -1.7 98 1010.3 6.9 N 13.6 0.0 0.0
06:43 -1.4 -1.7 98 1010.4 9.2 NE 13.6 0.0 0.0
06:44 -1.4 -1.7 98 1010.5 9.2 N 13.6 0.0 0.0
06:45 -1.4 -1.7 98 1010.6 9.8 NE 13.6 0.0 0.0
06:46 -1.4 -1.7 98 1010.6 8.3 WNW 13.6 0.0 0.0
06:47 -1.4 -1.7 98 1010.6 9.2 N 13.6 0.0 0.0
06:48 -1.4 -1.7 98 1010.7 9.2 NE 13.6 0.0 0.0
06:49 -1.4 -1.7 98 1010.7 9.8 N 12.1 0.0 0.0
06:50 -1.4 -1.7 98 1010.6 10.7 E 10.7 0.0 0.0
06:51 -1.4 -1.7 98 1010.5 9.8 N 10.7 0.0 0.0
06:52 -1.4 -1.7 98 1010.7 9.8 E 10.7 0.0 0.0
06:53 -1.4 -1.7 98 1010.6 10.7 NE 10.7 0.0 0.0
06:54 -1.5 -1.8 98 1010.7 13.6 N 13.6 0.0 0.0
06:55 -1.5 -1.8 98 1010.6 16.8 NE 16.8 0.0 0.0
06:56 -1.5 -1.8 98 1010.6 10.7 NE 16.8 0.0 0.0
06:57 -1.5 -1.8 98 1010.5 10.7 NE 16.8 0.0 0.0
06:58 -1.5 -1.8 98 1010.7 11.4 N 16.8 0.0 0.0
06:59 -1.5 -1.8 98 1010.7 9.8 N 16.8 0.0 0.0
07:00 -1.5 -1.8 98 1010.8 11.4 NE 16.8 0.0 0.0
07:01 -1.5 -1.8 98 1010.6 7.6 NE 16.8 0.0 0.0
07:02 -1.5 -1.8 98 1010.7 10.7 NE 16.8 0.0 0.0
07:03 -1.5 -1.8 98 1010.6 6.0 NE 16.8 0.0 0.0
07:04 -1.5 -1.8 98 1010.7 5.4 N 16.8 0.0 0.0
07:05 -1.5 -1.8 98 1010.7 6.0 N 16.8 0.0 0.0
07:06 -1.6 -1.9 98 1010.7 10.7 NE 11.4 0.0 0.0
07:07 -1.6 -1.9 98 1010.7 10.7 N 11.4 0.0 0.0
07:08 -1.6 -1.9 98 1010.8 7.6 N 11.4 0.0 0.0
07:09 -1.6 -1.9 98 1010.9 9.2 N 11.4 0.0 0.0
07:10 -1.6 -1.9 98 1011.0 10.7 N 10.7 0.0 0.0
07:12 -1.6 -1.9 98 1010.9 7.6 N 10.7 0.0 0.0
07:13 -1.6 -1.9 98 1011.1 9.8 N 10.7 0.0 0.0
07:14 -1.6 -1.9 98 1011.1 9.8 NE 10.7 0.0 0.0
07:15 -1.6 -1.9 98 1011.1 10.7 NE 10.7 0.0 0.0
07:16 -1.6 -1.9 98 1010.9 8.3 N 10.7 0.0 0.0
07:17 -1.6 -1.9 98 1011.1 13.6 NE 13.6 0.0 0.0
07:18 -1.6 -1.9 98 1011.1 8.3 NE 13.6 0.0 0.0
07:19 -1.6 -1.9 98 1011.0 8.3 NE 13.6 0.0 0.0
07:20 -1.6 -1.9 98 1011.0 11.4 NNE 13.6 0.0 0.0
07:21 -1.6 -1.9 98 1011.2 10.7 NE 13.6 0.0 0.0
07:22 -1.6 -1.9 98 1011.0 7.6 N 13.6 0.0 0.0
07:23 -1.6 -1.9 98 1011.0 10.7 N 13.6 0.0 0.0
07:24 -1.6 -1.7 99 1011.1 15.2 N 15.2 0.0 0.0
07:25 -1.7 -2.0 98 1011.0 7.6 NE 15.2 0.0 0.0
07:26 -1.7 -1.8 99 1011.2 9.2 NE 15.2 0.0 0.0
07:27 -1.7 -2.0 98 1011.2 11.4 N 15.2 0.0 0.0
07:28 -1.7 -2.0 98 1011.0 6.0 N 15.2 0.0 0.0
07:29 -1.6 -1.7 99 1011.2 10.7 NE 15.2 0.0 0.0
07:30 -1.7 -1.8 99 1011.1 10.7 N 15.2 0.0 0.0
07:31 -1.7 -1.8 99 1011.2 10.7 N 15.2 0.0 0.0
07:32 -1.7 -1.8 99 1011.2 7.6 NE 15.2 0.0 0.0
07:33 -1.7 -1.8 99 1011.2 9.8 N 15.2 0.0 0.0
07:34 -1.7 -1.8 99 1011.1 8.3 N 11.4 0.0 0.0
07:35 -1.7 -1.8 99 1011.1 6.9 N 11.4 0.0 0.0
07:36 -1.7 -1.8 99 1011.1 5.4 N 11.4 0.0 0.0
07:37 -1.7 -1.8 99 1011.1 6.0 N 10.7 0.0 0.0
07:38 -1.7 -1.8 99 1011.2 7.6 N 10.7 0.0 0.0
07:39 -1.7 -1.8 99 1011.1 6.0 NE 10.7 0.0 0.0
07:40 -1.7 -1.8 99 1011.1 9.8 NE 10.7 0.0 0.0
07:41 -1.7 -1.8 99 1011.0 7.6 NE 9.8 0.0 0.0
07:42 -1.7 -1.8 99 1011.1 10.7 NE 10.7 0.0 0.0
07:43 -1.7 -1.8 99 1011.3 9.2 N 10.7 0.0 0.0
07:44 -1.7 -1.8 99 1011.2 6.0 N 10.7 0.0 0.0
07:45 -1.7 -1.8 99 1011.2 6.9 N 10.7 0.0 0.0
07:46 -1.7 -1.8 99 1011.4 7.6 NE 13.6 0.0 0.0
07:47 -1.7 -1.8 99 1011.4 4.5 NNE 13.6 0.0 0.0
07:48 -1.7 -1.8 99 1011.3 10.7 NW 13.6 0.0 0.0
07:49 -1.7 -1.8 99 1011.3 7.6 NE 13.6 0.0 0.0
07:50 -1.7 -1.8 99 1011.3 8.3 N 13.6 0.0 0.0
07:51 -1.7 -1.8 99 1011.4 9.8 N 13.6 0.0 0.0
07:52 -1.7 -1.8 99 1011.5 9.2 NE 13.6 0.0 0.0
07:53 -1.7 -1.8 99 1011.6 8.3 N 13.6 0.0 0.0
07:54 -1.7 -1.8 99 1011.4 9.2 N 13.6 0.0 0.0
07:56 -1.7 -1.8 99 1011.5 7.6 N 13.6 0.0 0.0
07:57 -1.7 -1.8 99 1011.4 11.4 N 11.4 0.0 0.0
07:58 -1.6 -1.7 99 1011.5 8.3 N 11.4 0.0 0.0
07:59 -1.6 -1.7 99 1011.4 8.3 N 11.4 0.0 0.0
08:00 -1.7 -1.8 99 1011.6 5.4 NE 11.4 0.0 0.0
08:01 -1.6 -1.7 99 1011.6 9.8 NE 11.4 0.0 0.0
08:02 -1.6 -1.7 99 1011.7 7.6 N 11.4 0.0 0.0
08:03 -1.6 -1.7 99 1011.6 7.6 N 11.4 0.0 0.0
08:04 -1.6 -1.7 99 1011.7 7.6 N 11.4 0.0 0.0
08:05 -1.6 -1.7 99 1011.7 7.6 N 11.4 0.0 0.0
08:06 -1.6 -1.7 99 1011.7 7.6 N 11.4 0.0 0.0
08:07 -1.6 -1.7 99 1011.7 7.6 N 11.4 0.0 0.0
08:08 -1.6 -1.7 99 1011.6 9.2 N 9.8 0.0 0.0
08:09 -1.6 -1.7 99 1011.7 8.3 NW 9.8 0.0 0.0
08:11 -1.6 -1.7 99 1011.7 7.6 NE 9.8 0.0 0.0
08:12 -1.6 -1.7 99 1011.6 8.3 N 9.8 0.0 0.0
08:14 -1.5 -1.6 99 1011.6 7.6 N 9.8 0.0 0.0
08:15 -1.5 -1.6 99 1011.7 10.7 NE 10.7 0.0 0.0
08:16 -1.5 -1.6 99 1011.7 9.8 NE 12.1 0.0 0.0
08:17 -1.5 -1.6 99 1011.7 9.8 N 12.1 0.0 0.0
08:18 -1.5 -1.6 99 1011.8 13.0 NW 13.0 0.0 0.0
08:19 -1.5 -1.6 99 1011.7 13.0 N 13.0 0.0 0.0
08:20 -1.5 -1.6 99 1011.5 9.8 NE 13.0 0.0 0.0
08:21 -1.6 -1.7 99 1011.7 8.3 N 13.0 0.0 0.0
08:22 -1.5 -1.6 99 1011.8 11.4 NE 13.0 0.0 0.0
08:23 -1.4 -1.5 99 1011.7 11.4 NE 13.0 0.0 0.0
08:24 -1.4 -1.5 99 1011.6 10.7 WNW 13.0 0.0 0.0
08:25 -1.4 -1.5 99 1011.7 9.8 N 13.0 0.0 0.0
08:26 -1.4 -1.5 99 1011.7 13.0 N 13.0 0.0 0.0
08:27 -1.4 -1.5 99 1011.7 9.2 NE 13.0 0.0 0.0
08:28 -1.4 -1.5 99 1011.9 6.0 N 13.0 0.0 0.0
08:29 -1.4 -1.5 99 1011.7 6.0 NE 13.0 0.0 0.0
08:30 -1.4 -1.5 99 1011.6 10.7 NE 13.0 0.0 0.0
08:31 -1.4 -1.5 99 1011.7 10.7 NE 13.0 0.0 0.0
08:33 -1.3 -1.6 98 1011.8 9.2 N 13.0 0.0 0.0
08:34 -1.3 -1.4 99 1011.8 10.7 NE 13.0 0.0 0.0
08:35 -1.3 -1.4 99 1011.7 11.4 N 13.0 0.0 0.0
08:36 -1.3 -1.6 98 1011.8 10.7 NE 13.0 0.0 0.0
08:37 -1.3 -1.6 98 1011.9 15.2 NE 15.2 0.0 0.0
08:38 -1.3 -1.6 98 1011.9 11.4 N 15.2 0.0 0.0
08:39 -1.3 -1.6 98 1011.8 7.6 N 15.2 0.0 0.0
08:40 -1.3 -1.6 98 1011.9 9.2 N 15.2 0.0 0.0
08:41 -1.2 -1.5 98 1011.9 15.9 N 15.9 0.0 0.0
08:42 -1.2 -1.5 98 1011.9 13.6 N 15.9 0.0 0.0
08:43 -1.2 -1.5 98 1011.7 13.6 N 15.9 0.0 0.0
08:44 -1.2 -1.5 98 1011.8 8.3 NE 15.9 0.0 0.0
08:45 -1.2 -1.5 98 1011.8 9.8 NNE 15.9 0.0 0.0
08:46 -1.2 -1.5 98 1011.7 9.8 NNE 15.9 0.0 0.0
08:47 -1.2 -1.5 98 1011.9 12.1 N 15.9 0.0 0.0
08:48 -1.2 -1.5 98 1012.0 13.6 NE 15.9 0.0 0.0
08:49 -1.2 -1.5 98 1012.0 9.8 NE 15.9 0.0 0.0
08:50 -1.2 -1.5 98 1012.1 11.4 NE 15.9 0.0 0.0
08:51 -1.2 -1.5 98 1012.2 11.4 NE 13.6 0.0 0.0
08:52 -1.2 -1.5 98 1012.1 10.7 NE 13.6 0.0 0.0
08:53 -1.1 -1.4 98 1012.0 9.8 NE 13.6 0.0 0.0
08:54 -1.1 -1.4 98 1012.0 13.0 NE 13.6 0.0 0.0
08:55 -1.2 -1.6 97 1011.9 10.7 N 13.6 0.0 0.0
08:56 -1.2 -1.6 97 1012.1 10.7 N 13.6 0.0 0.0
08:57 -1.1 -1.5 97 1012.0 8.3 N 13.6 0.0 0.0
08:58 -1.1 -1.5 97 1012.1 12.1 NE 13.0 0.0 0.0
09:00 -1.2 -1.6 97 1012.2 8.3 NE 14.5 0.0 0.0
09:01 -1.1 -1.5 97 1012.3 15.2 NE 15.2 0.0 0.0
09:02 -1.1 -1.5 97 1012.1 9.8 NE 15.2 0.0 0.0
09:03 -1.1 -1.5 97 1012.1 9.8 NE 15.2 0.0 0.0
09:04 -1.1 -1.5 97 1012.2 9.8 NE 15.2 0.0 0.0
09:05 -1.1 -1.5 97 1012.2 9.8 NE 15.2 0.0 0.0
09:06 -1.1 -1.5 97 1012.1 9.8 NE 15.2 0.0 0.0
09:07 -1.1 -1.5 97 1012.0 9.2 N 15.2 0.0 0.0
09:08 -1.1 -1.5 97 1012.2 9.8 NE 15.2 0.0 0.0
09:09 -1.1 -1.6 96 1012.1 13.0 NW 15.2 0.0 0.0
09:10 -1.1 -1.5 97 1012.1 9.8 NE 15.2 0.0 0.0
09:11 -1.1 -1.5 97 1012.2 10.7 N 15.2 0.0 0.0
09:12 -1.1 -1.6 96 1012.2 9.8 NE 13.0 0.0 0.0
09:13 -1.1 -1.6 96 1012.1 6.0 NE 13.0 0.0 0.0
09:14 -1.1 -1.6 96 1012.2 9.2 N 13.0 0.0 0.0
09:15 -1.0 -1.6 96 1012.3 7.6 NE 13.0 0.0 0.0
09:16 -1.0 -1.6 96 1012.2 13.0 N 13.0 0.0 0.0
09:17 -1.0 -1.6 96 1012.2 11.4 N 13.0 0.0 0.0
09:18 -1.0 -1.6 96 1012.3 13.0 N 13.0 0.0 0.0
09:19 -1.0 -1.6 96 1012.3 11.4 N 13.0 0.0 0.0
09:20 -1.0 -1.6 96 1012.3 8.3 NE 13.0 0.0 0.0
09:21 -1.0 -1.6 96 1012.3 11.4 NE 13.0 0.0 0.0
09:22 -1.0 -1.6 96 1012.3 13.0 NE 13.0 0.0 0.0
09:23 -1.0 -1.6 96 1012.3 8.3 NE 13.0 0.0 0.0
09:24 -1.0 -1.6 96 1012.3 9.8 NE 13.0 0.0 0.0
09:25 -1.0 -1.6 96 1012.3 10.7 N 13.0 0.0 0.0
09:27 -1.0 -1.6 96 1012.4 9.2 N 13.0 0.0 0.0
09:28 -1.0 -1.6 96 1012.3 9.2 NE 13.0 0.0 0.0
09:29 -0.9 -1.5 96 1012.3 5.4 NE 13.0 0.0 0.0
09:30 -0.9 -1.6 95 1012.2 8.3 N 13.0 0.0 0.0
09:31 -0.9 -1.6 95 1012.4 11.4 NE 13.0 0.0 0.0
09:32 -0.9 -1.6 95 1012.4 6.9 N 13.0 0.0 0.0
09:33 -0.9 -1.6 95 1012.4 8.3 NE 11.4 0.0 0.0
09:34 -0.9 -1.6 95 1012.4 13.0 NE 13.0 0.0 0.0
09:35 -0.9 -1.6 95 1012.5 12.1 N 13.0 0.0 0.0
09:36 -0.9 -1.6 95 1012.6 13.0 N 13.0 0.0 0.0
09:37 -0.9 -1.6 95 1012.6 6.9 N 13.0 0.0 0.0
09:38 -0.9 -1.6 95 1012.5 13.6 NE 13.6 0.0 0.0
09:39 -0.9 -1.6 95 1012.5 10.7 NE 13.6 0.0 0.0
09:40 -0.8 -1.5 95 1012.6 10.7 NE 13.6 0.0 0.0
09:41 -0.8 -1.5 95 1012.7 9.2 N 13.6 0.0 0.0
09:42 -0.8 -1.5 95 1012.7 10.7 NE 13.6 0.0 0.0
09:43 -0.8 -1.5 95 1012.7 12.1 N 13.6 0.0 0.0
09:44 -0.8 -1.5 95 1012.7 7.6 NE 13.6 0.0 0.0
09:45 -0.8 -1.5 95 1012.7 7.6 NE 13.6 0.0 0.0
09:46 -0.7 -1.4 95 1012.7 15.2 NE 15.2 0.0 0.0
09:47 -0.7 -1.5 94 1012.6 17.4 NE 17.4 0.0 0.0
09:48 -0.7 -1.5 94 1012.7 13.6 NE 17.4 0.0 0.0
09:49 -0.7 -1.5 94 1012.7 12.1 N 17.4 0.0 0.0
09:50 -0.6 -1.4 94 1012.7 9.2 NE 17.4 0.0 0.0
09:51 -0.6 -1.4 94 1012.7 7.6 NE 17.4 0.0 0.0
09:52 -0.6 -1.4 94 1012.8 11.4 NE 17.4 0.0 0.0
09:53 -0.6 -1.4 94 1012.7 16.8 NE 17.4 0.0 0.0
09:54 -0.6 -1.4 94 1012.7 12.1 NE 17.4 0.0 0.0
09:55 -0.6 -1.4 94 1012.7 9.2 NE 17.4 0.0 0.0
09:56 -0.6 -1.4 94 1012.7 10.7 NE 17.4 0.0 0.0
09:57 -0.6 -1.4 94 1012.7 9.8 NE 17.4 0.0 0.0
09:58 -0.6 -1.4 94 1012.7 9.8 NE 16.8 0.0 0.0
10:00 -0.6 -1.4 94 1012.7 15.9 NE 16.8 0.0 0.0
10:01 -0.5 -1.5 93 1012.7 13.0 N 16.8 0.0 0.0
10:02 -0.5 -1.5 93 1012.6 14.5 N 16.8 0.0 0.0
10:03 -0.5 -1.5 93 1012.6 14.5 N 16.8 0.0 0.0
10:04 -0.5 -1.5 93 1012.7 14.5 N 15.9 0.0 0.0
10:05 -0.5 -1.5 93 1012.7 14.5 N 15.9 0.0 0.0
10:06 -0.5 -1.5 93 1012.6 14.5 N 15.9 0.0 0.0
10:07 -0.5 -1.5 93 1012.8 14.5 N 15.9 0.0 0.0
10:08 -0.5 -1.5 93 1012.8 14.5 N 15.9 0.0 0.0
10:10 -0.5 -1.5 93 1012.6 13.6 NE 15.9 0.0 0.0
10:11 -0.4 -1.4 93 1012.8 8.3 NE 14.5 0.0 0.0
10:13 -0.4 -1.4 93 1012.8 9.2 NE 14.5 0.0 0.0
10:14 -0.4 -1.4 93 1012.8 9.2 NE 14.5 0.0 0.0
10:15 -0.4 -1.4 93 1012.9 13.0 NE 14.5 0.0 0.0
10:17 -0.4 -1.4 93 1012.9 15.9 N 15.9 0.0 0.0
10:18 -0.4 -1.5 92 1013.0 14.5 NE 15.9 0.0 0.0
10:19 -0.4 -1.5 92 1012.8 13.6 NE 15.9 0.0 0.0
10:20 -0.4 -1.5 92 1012.9 11.4 NE 15.9 0.0 0.0
10:21 -0.4 -1.5 92 1012.8 12.1 NE 15.9 0.0 0.0
10:22 -0.4 -1.5 92 1012.9 15.2 N 15.9 0.0 0.0
10:23 -0.4 -1.5 92 1012.8 13.0 N 15.9 0.0 0.0
10:24 -0.4 -1.5 92 1012.8 15.2 NE 15.9 0.0 0.0
10:25 -0.4 -1.5 92 1013.0 15.2 NE 15.9 0.0 0.0
10:26 -0.3 -1.4 92 1012.9 13.0 NE 15.9 0.0 0.0
10:27 -0.4 -1.5 92 1012.9 13.0 NE 15.2 0.0 0.0
10:28 -0.3 -1.4 92 1013.0 11.4 N 15.2 0.0 0.0
10:29 -0.3 -1.4 92 1013.1 13.6 N 15.2 0.0 0.0
10:30 -0.3 -1.4 92 1013.1 14.5 NE 15.2 0.0 0.0
10:31 -0.3 -1.4 92 1013.0 19.0 N 19.0 0.0 0.0
10:33 -0.2 -1.5 91 1013.1 15.2 NE 19.0 0.0 0.0
10:34 -0.2 -1.5 91 1013.1 15.2 N 19.0 0.0 0.0
10:35 -0.2 -1.5 91 1013.3 13.0 NE 19.0 0.0 0.0
10:36 -0.2 -1.5 91 1013.1 13.0 NE 19.0 0.0 0.0
10:37 -0.1 -1.4 91 1013.2 15.2 N 19.0 0.0 0.0
10:38 -0.1 -1.4 91 1013.2 9.2 NE 19.0 0.0 0.0
10:39 0.0 -1.3 91 1013.4 12.1 NE 19.0 0.0 0.0
10:40 0.0 -1.3 91 1013.3 15.9 N 19.0 0.0 0.0
10:41 0.1 -1.2 91 1013.4 16.8 N 19.0 0.0 0.0
10:42 0.1 -1.2 91 1013.2 13.6 NE 18.3 0.0 0.0
10:43 0.1 -1.2 91 1013.2 13.0 N 16.8 0.0 0.0
10:44 0.2 -1.1 91 1013.3 8.3 N 16.8 0.0 0.0
10:45 0.2 -1.1 91 1013.2 8.3 NE 16.8 0.0 0.0
10:46 0.3 -1.0 91 1013.2 14.5 N 16.8 0.0 0.0
10:47 0.3 -1.0 91 1013.3 12.1 NE 16.8 0.0 0.0
10:48 0.4 -0.9 91 1013.2 10.7 NE 16.8 0.0 0.0
10:49 0.4 -1.0 90 1013.3 14.5 NE 16.8 0.0 0.0
10:50 0.4 -1.0 90 1013.2 11.4 NE 16.8 0.0 0.0
10:51 0.4 -1.0 90 1013.3 11.4 N 14.5 0.0 0.0
10:52 0.5 -0.9 90 1013.4 8.3 N 14.5 0.0 0.0
10:53 0.5 -0.9 90 1013.4 13.0 E 14.5 0.0 0.0
10:54 0.5 -0.9 90 1013.4 15.9 N 15.9 0.0 0.0
10:56 0.6 -0.8 90 1013.2 16.8 NE 16.8 0.0 0.0
10:57 0.6 -0.8 90 1013.5 15.9 NE 16.8 0.0 0.0
10:58 0.6 -0.8 90 1013.3 15.2 W 16.8 0.0 0.0
10:59 0.6 -0.8 90 1013.4 15.9 NE 16.8 0.0 0.0
11:00 0.6 -1.0 89 1013.3 15.9 N 16.8 0.0 0.0
11:01 0.6 -1.0 89 1013.3 15.2 NE 16.8 0.0 0.0
11:02 0.6 -1.0 89 1013.5 12.1 NE 16.8 0.0 0.0
11:03 0.7 -0.9 89 1013.4 17.4 NE 17.4 0.0 0.0
11:04 0.6 -1.0 89 1013.4 18.3 NE 18.3 0.0 0.0
11:06 0.7 -0.9 89 1013.3 11.4 NE 18.3 0.0 0.0
11:07 0.7 -0.9 89 1013.2 12.1 NE 18.3 0.0 0.0
11:08 0.7 -0.9 89 1013.2 13.6 NE 18.3 0.0 0.0
11:09 0.7 -0.9 89 1013.4 20.6 NE 20.6 0.0 0.0
11:10 0.7 -1.1 88 1013.3 10.7 NE 20.6 0.0 0.0
11:11 0.8 -1.0 88 1013.2 13.6 NE 20.6 0.0 0.0
11:12 0.8 -1.0 88 1013.5 15.9 NE 20.6 0.0 0.0
11:13 0.8 -1.0 88 1013.5 12.1 N 20.6 0.0 0.0
11:14 0.8 -1.0 88 1013.4 8.3 N 20.6 0.0 0.0
11:15 0.8 -1.0 88 1013.4 9.8 NE 20.6 0.0 0.0
11:17 0.9 -0.9 88 1013.4 11.4 N 20.6 0.0 0.0
11:18 0.9 -0.9 88 1013.5 9.8 N 20.6 0.0 0.0
11:19 0.9 -0.9 88 1013.5 12.1 SW 20.6 0.0 0.0
11:20 0.9 -0.9 88 1013.4 14.5 NE 15.9 0.0 0.0
11:21 0.9 -0.9 88 1013.6 11.4 NE 15.9 0.0 0.0
11:22 0.9 -0.9 88 1013.6 14.5 NE 15.9 0.0 0.0
11:23 0.9 -1.0 87 1013.4 12.1 E 14.5 0.0 0.0
11:24 0.9 -1.0 87 1013.5 9.8 NE 14.5 0.0 0.0
11:25 0.9 -1.0 87 1013.5 9.8 NE 14.5 0.0 0.0
11:26 1.0 -0.9 87 1013.4 13.0 N 14.5 0.0 0.0
11:27 1.0 -0.9 87 1013.4 13.6 N 14.5 0.0 0.0
11:28 1.0 -0.9 87 1013.4 9.8 E 14.5 0.0 0.0
11:29 1.0 -0.9 87 1013.4 12.1 NE 14.5 0.0 0.0
11:30 1.0 -0.9 87 1013.3 13.0 N 14.5 0.0 0.0
11:31 1.0 -0.9 87 1013.4 14.5 NE 14.5 0.0 0.0
11:32 1.1 -0.8 87 1013.5 12.1 NE 14.5 0.8 0.1
11:33 1.1 -0.8 87 1013.4 10.7 N 14.5 0.8 0.1
11:34 1.1 -0.8 87 1013.6 12.1 N 14.5 0.8 0.1
11:36 1.1 -0.8 87 1013.6 10.7 NE 14.5 0.8 0.1
11:37 1.1 -0.8 87 1013.5 14.5 NE 14.5 0.0 0.1
11:38 1.1 -1.0 86 1013.6 13.0 NE 14.5 0.0 0.1
11:39 1.2 -0.9 86 1013.5 11.4 NE 14.5 0.0 0.1
11:40 1.1 -1.0 86 1013.5 10.7 NE 14.5 0.0 0.1
11:41 1.2 -0.9 86 1013.6 10.7 NE 14.5 0.0 0.1
11:42 1.2 -0.9 86 1013.5 10.7 E 14.5 0.0 0.1
11:43 1.2 -1.0 85 1013.5 13.6 NE 14.5 0.0 0.1
11:44 1.2 -1.0 85 1013.7 14.5 NE 14.5 0.0 0.1
11:45 1.2 -1.0 85 1013.7 12.1 NE 14.5 0.0 0.1
11:46 1.2 -1.2 84 1013.7 16.8 NE 16.8 0.0 0.1
11:47 1.2 -1.2 84 1013.9 15.9 NE 16.8 0.0 0.1
11:48 1.2 -1.4 83 1013.6 15.9 NE 16.8 0.0 0.1
11:49 1.2 -1.4 83 1013.8 13.6 NE 16.8 0.0 0.1
11:51 1.2 -1.4 83 1013.7 10.7 N 16.8 0.0 0.1
11:52 1.3 -1.3 83 1013.8 10.7 NE 16.8 0.0 0.1
11:53 1.3 -1.3 83 1013.8 12.1 NE 16.8 0.0 0.1
11:54 1.3 -1.4 82 1013.7 10.7 NE 16.8 0.0 0.1
11:55 1.4 -1.3 82 1013.8 14.5 N 16.8 0.0 0.1
11:56 1.4 -1.5 81 1013.8 14.5 N 16.8 0.0 0.1
11:57 1.4 -1.5 81 1013.8 15.2 NE 15.9 0.0 0.1
11:58 1.4 -1.5 81 1013.7 15.9 N 15.9 0.0 0.1
11:59 1.4 -1.5 81 1013.9 18.3 NE 18.3 0.0 0.1
12:00 1.5 -1.4 81 1014.0 9.2 NE 18.3 0.0 0.1
12:01 1.5 -1.4 81 1013.9 9.8 N 18.3 0.0 0.1
12:02 1.6 -1.3 81 1014.0 15.2 NE 18.3 0.0 0.1
12:03 1.6 -1.3 81 1013.8 10.7 NE 18.3 0.0 0.1
12:04 1.7 -1.2 81 1013.9 11.4 NE 18.3 0.0 0.1
12:05 1.8 -1.1 81 1014.0 12.1 NE 18.3 0.0 0.1
12:06 1.8 -1.1 81 1014.0 13.6 N 18.3 0.0 0.1
12:08 1.9 -1.0 81 1014.0 6.9 N 18.3 0.0 0.1
12:09 1.9 -1.0 81 1014.1 10.7 NE 18.3 0.0 0.1
12:10 1.9 -1.2 80 1014.0 10.7 NE 15.2 0.0 0.1
12:11 1.9 -1.2 80 1014.0 13.0 NE 15.2 0.0 0.1
12:13 1.8 -1.3 80 1013.9 15.2 NE 15.2 0.0 0.1
12:14 1.8 -1.3 80 1014.0 13.6 N 15.2 0.0 0.1
12:16 1.8 -1.3 80 1014.0 12.1 NE 15.2 0.0 0.1
12:17 1.8 -1.4 79 1014.2 13.6 NE 15.2 0.0 0.1
12:18 1.8 -1.4 79 1014.0 14.5 NE 15.2 0.0 0.1
12:19 1.8 -1.4 79 1014.0 21.3 NE 21.3 0.0 0.1
12:20 1.8 -1.4 79 1014.2 13.6 NE 21.3 0.0 0.1
12:21 1.7 -1.5 79 1014.3 13.6 NE 21.3 0.0 0.1
12:22 1.7 -1.5 79 1014.2 15.2 NE 21.3 0.0 0.1
12:23 1.7 -1.5 79 1014.2 12.1 NE 21.3 0.0 0.1
12:25 1.7 -1.7 78 1014.2 13.0 NE 21.3 0.0 0.1
12:26 1.7 -1.5 79 1014.2 14.5 N 21.3 0.0 0.1
12:27 1.7 -1.5 79 1014.2 9.2 NE 21.3 0.0 0.1
12:28 1.8 -1.4 79 1014.2 9.2 NE 21.3 0.0 0.1
12:29 1.8 -1.4 79 1014.2 10.7 NE 21.3 0.0 0.1
12:30 1.8 -1.4 79 1014.3 9.2 NE 15.2 0.0 0.1
12:31 1.8 -1.4 79 1014.2 9.8 NE 15.2 0.0 0.1
12:32 2.0 -1.3 79 1014.4 6.0 N 15.2 0.0 0.1
12:33 2.0 -1.3 79 1014.2 12.1 N 14.5 0.0 0.1
12:34 2.0 -1.3 79 1014.2 10.7 N 14.5 0.0 0.1
12:35 2.0 -1.3 79 1014.3 9.2 NE 14.5 0.0 0.1
12:36 2.1 -1.2 79 1014.3 7.6 N 12.1 0.0 0.1
12:37 2.2 -1.1 79 1014.4 11.4 NE 12.1 0.0 0.1
12:38 2.2 -1.1 79 1014.4 12.1 NE 12.1 0.0 0.1
12:39 2.2 -1.1 79 1014.4 11.4 NE 12.1 0.0 0.1
12:40 2.2 -1.1 79 1014.3 7.6 NE 12.1 0.0 0.1
12:42 2.2 -1.2 78 1014.3 11.4 N 12.1 0.0 0.1
12:43 2.2 -1.2 78 1014.4 12.1 N 12.1 0.0 0.1
12:44 2.1 -1.3 78 1014.4 13.0 NE 13.0 0.0 0.1
12:45 2.1 -1.3 78 1014.4 10.7 N 13.0 0.0 0.1
12:46 2.1 -1.3 78 1014.5 11.4 NE 13.0 0.0 0.1
12:47 2.0 -1.4 78 1014.4 6.9 NE 13.0 0.0 0.1
12:48 2.0 -1.4 78 1014.5 10.7 NE 13.0 0.0 0.1
12:49 2.0 -1.4 78 1014.4 13.0 NE 13.0 0.0 0.1
12:50 2.0 -1.4 78 1014.6 10.7 NE 13.0 0.0 0.1
12:51 2.0 -1.4 78 1014.4 9.8 WNW 13.0 0.0 0.1
12:53 2.0 -1.4 78 1014.6 8.3 NE 13.0 0.0 0.1
12:54 1.9 -1.5 78 1014.7 11.4 NE 13.0 0.0 0.1
12:55 2.0 -1.4 78 1014.7 9.2 N 13.0 0.0 0.1
12:56 1.9 -1.5 78 1014.6 11.4 N 13.0 0.0 0.1
12:57 1.9 -1.5 78 1014.6 7.6 NE 13.0 0.0 0.1
12:58 1.9 -1.5 78 1014.7 9.8 NE 13.0 0.8 0.1
12:59 1.9 -1.5 78 1014.5 14.5 N 14.5 0.8 0.1
13:00 1.9 -1.5 78 1014.6 11.4 NE 14.5 0.8 0.2
13:01 1.9 -1.5 78 1014.6 9.8 NE 14.5 1.5 0.2
13:02 1.9 -1.5 78 1014.5 13.0 E 14.5 1.5 0.2
13:03 1.9 -1.5 78 1014.5 12.1 N 14.5 0.8 0.2
13:04 1.9 -1.5 78 1014.5 13.6 NE 14.5 0.8 0.2
13:05 1.9 -1.5 78 1014.6 10.7 NE 14.5 0.8 0.2
13:06 1.9 -1.5 78 1014.6 12.1 N 14.5 0.8 0.3
13:08 1.9 -1.5 78 1014.7 13.0 NE 14.5 0.8 0.3
13:09 1.9 -1.5 78 1014.5 12.1 N 14.5 0.8 0.3
13:10 1.9 -1.5 78 1014.7 15.2 N 15.2 1.5 0.3
13:11 1.9 -1.7 77 1014.7 9.8 NE 15.2 0.8 0.3
13:12 1.9 -1.7 77 1014.6 13.6 NE 15.2 0.8 0.3
13:13 1.9 -1.7 77 1014.6 13.0 NE 15.2 0.8 0.3
13:14 1.8 -1.8 77 1014.6 12.1 N 15.2 0.8 0.3
13:15 1.8 -1.6 78 1014.8 13.0 NE 15.2 0.0 0.3
13:16 1.8 -1.6 78 1014.7 9.2 NE 15.2 0.0 0.3
13:17 1.8 -1.8 77 1014.7 13.6 NE 15.2 0.0 0.3
13:18 1.8 -1.8 77 1014.7 10.7 NE 15.2 0.0 0.3
13:19 1.8 -1.8 77 1014.8 11.4 N 15.2 1.5 0.4
13:20 1.9 -1.5 78 1014.7 9.2 NE 13.6 1.5 0.4
13:21 1.9 -1.5 78 1014.8 9.8 NE 13.6 1.5 0.4
13:22 2.0 -1.4 78 1014.8 10.7 NE 13.6 1.5 0.4
13:23 2.0 -1.6 77 1014.7 8.3 NW 13.6 1.5 0.4
13:24 2.0 -1.4 78 1014.8 10.7 N 13.6 0.8 0.5
13:25 2.0 -1.4 78 1014.9 10.7 NE 13.6 0.8 0.6
13:26 2.0 -1.4 78 1014.8 13.0 N 13.6 1.5 0.6
13:27 2.0 -1.4 78 1014.9 10.7 NE 13.0 1.5 0.6
13:28 2.0 -1.6 77 1014.9 13.0 NE 13.0 1.5 0.6
13:30 1.9 -1.7 77 1014.7 11.4 NE 13.0 0.8 0.6
13:31 1.9 -1.7 77 1014.9 8.3 NE 13.0 0.0 0.6
13:32 1.9 -1.7 77 1014.9 8.3 NE 13.0 0.8 0.6
13:33 1.9 -1.7 77 1014.8 8.3 N 13.0 0.8 0.6
13:34 1.9 -1.5 78 1014.6 10.7 E 13.0 2.3 0.8
13:35 1.9 -1.5 78 1014.7 7.6 NE 13.0 2.3 0.8
13:36 2.0 -1.6 77 1014.7 10.7 NE 13.0 2.3 0.8
13:37 2.0 -1.6 77 1014.8 10.7 NE 13.0 1.5 0.8
13:38 2.0 -1.4 78 1014.8 9.8 NE 13.0 1.5 0.8
13:39 1.9 -1.5 78 1014.9 6.0 NE 11.4 0.0 0.8
13:40 1.9 -1.5 78 1014.9 9.8 NE 11.4 0.0 0.8
13:41 1.9 -1.5 78 1014.9 7.6 NE 10.7 0.0 0.8
13:42 1.9 -1.5 78 1014.9 6.9 N 10.7 0.8 0.8
13:43 1.9 -1.7 77 1014.7 9.2 N 10.7 0.8 0.8
13:44 1.9 -1.7 77 1014.9 7.6 N 10.7 1.5 0.9
13:45 1.9 -1.7 77 1015.0 6.9 NE 10.7 1.5 0.9
13:46 1.9 -1.7 77 1015.0 7.6 N 10.7 1.5 0.9
13:48 2.0 -1.6 77 1015.0 10.7 NE 10.7 0.8 0.9
13:49 2.0 -1.6 77 1014.9 8.3 NE 10.7 0.0 0.9
13:50 2.0 -1.6 77 1015.0 10.7 NE 10.7 0.0 0.9
13:51 2.2 -1.2 78 1015.1 10.7 NE 10.7 0.8 0.9
13:52 2.2 -1.4 77 1015.2 12.1 WNW 12.1 0.8 0.9
13:53 2.2 -1.4 77 1015.0 15.2 NE 15.2 0.8 0.9
13:54 2.3 -1.3 77 1015.0 12.1 NE 15.2 1.5 1.0
13:55 2.3 -1.3 77 1015.1 10.7 NW 15.2 1.5 1.0
13:56 2.3 -1.3 77 1015.2 9.2 NW 15.2 0.8 1.0
13:57 2.2 -1.4 77 1015.1 6.0 N 15.2 0.8 1.0
13:58 2.2 -1.4 77 1015.1 7.6 N 15.2 0.8 1.0
14:00 2.2 -1.4 77 1015.2 5.4 NW 15.2 0.0 1.0
14:01 2.2 -1.4 77 1015.2 9.2 NE 15.2 0.0 1.0
14:02 2.2 -1.4 77 1015.2 9.2 NE 15.2 0.8 1.1
14:03 2.2 -1.4 77 1015.2 7.6 NE 12.1 0.8 1.1
14:04 2.2 -1.4 77 1015.2 7.6 NE 12.1 0.8 1.1
14:05 2.2 -1.4 77 1015.1 9.2 NE 12.1 0.8 1.1
14:06 2.2 -1.4 77 1015.2 9.2 N 12.1 1.5 1.1
14:07 2.2 -1.4 77 1015.0 8.3 NE 9.2 0.8 1.1
14:08 2.2 -1.4 77 1015.2 6.9 NE 10.7 0.8 1.1
14:09 2.2 -1.4 77 1015.1 6.9 NE 10.7 0.8 1.1
14:11 2.2 -1.4 77 1015.1 7.6 N 10.7 0.0 1.1
14:12 2.2 -1.4 77 1015.2 9.2 N 10.7 0.0 1.1
14:14 2.2 -1.4 77 1015.2 9.8 NE 10.7 0.0 1.2
14:15 2.2 -1.4 77 1015.2 9.8 N 10.7 0.8 1.2
14:17 2.2 -1.4 77 1015.2 12.1 NE 12.1 0.8 1.2
14:18 2.2 -1.4 77 1015.1 10.7 NE 12.1 1.5 1.3
14:19 2.3 -1.3 77 1015.3 9.2 NE 12.1 1.5 1.3
14:20 2.4 -1.0 78 1015.2 7.6 NE 12.1 0.8 1.3
14:21 2.5 -0.9 78 1015.2 9.2 NE 12.1 0.8 1.3
14:22 2.5 -1.1 77 1015.1 9.2 NE 12.1 0.8 1.3
14:23 2.5 -1.1 77 1015.2 5.4 N 12.1 1.5 1.4
14:24 2.6 -1.0 77 1015.1 10.7 N 12.1 1.5 1.4
14:25 2.6 -1.0 77 1015.3 13.0 N 13.0 1.5 1.4
14:26 2.5 -1.1 77 1015.2 9.2 NE 13.0 1.5 1.4
14:28 2.5 -1.1 77 1015.4 10.7 NE 13.0 0.8 1.4
14:29 2.5 -1.1 77 1015.2 9.8 NE 13.0 0.8 1.4
14:30 2.5 -1.1 77 1015.3 6.9 N 13.0 0.8 1.4
14:31 2.5 -1.1 77 1015.3 9.2 N 13.0 0.8 1.4
14:32 2.4 -1.2 77 1015.2 7.6 N 13.0 0.0 1.4
14:33 2.4 -1.2 77 1015.3 12.1 N 13.0 0.0 1.4
14:34 2.4 -1.2 77 1015.4 11.4 NE 13.0 0.0 1.5
14:35 2.4 -1.2 77 1015.5 13.0 NE 13.0 0.8 1.5
14:36 2.3 -1.3 77 1015.4 13.0 N 13.0 0.8 1.5
14:37 2.3 -1.3 77 1015.4 12.1 NE 13.0 0.8 1.5
14:39 2.3 -1.5 76 1015.4 13.0 N 13.0 1.5 1.6
14:40 2.3 -1.3 77 1015.5 11.4 N 13.0 0.8 1.6
14:41 2.2 -1.6 76 1015.5 12.1 NE 13.0 0.8 1.6
14:42 2.2 -1.6 76 1015.4 10.7 N 13.0 0.8 1.6
14:43 2.2 -1.6 76 1015.5 8.3 N 13.0 0.8 1.6
14:44 2.1 -1.7 76 1015.6 9.8 N 13.0 0.0 1.6
14:45 2.1 -1.7 76 1015.5 9.2 NE 13.0 0.0 1.6
14:46 2.1 -1.7 76 1015.5 13.0 NE 13.0 0.0 1.6
14:47 2.1 -1.7 76 1015.6 8.3 NE 13.0 0.0 1.6
14:48 2.1 -1.7 76 1015.6 9.2 NE 13.0 0.0 1.6
14:49 2.1 -1.5 77 1015.7 10.7 N 13.0 0.0 1.6
14:50 2.1 -1.5 77 1015.7 14.5 NE 14.5 0.0 1.6
14:51 2.1 -1.7 76 1015.7 9.8 N 14.5 0.8 1.6
14:52 2.1 -1.7 76 1015.7 9.2 N 14.5 0.8 1.6
14:53 2.1 -1.7 76 1015.7 6.9 NE 14.5 0.8 1.6
14:54 2.2 -1.6 76 1015.5 9.2 N 14.5 0.8 1.7
14:55 2.3 -1.5 76 1015.7 12.1 NE 14.5 1.5 1.7
14:56 2.3 -1.5 76 1015.7 4.5 NE 14.5 0.8 1.7
14:58 2.5 -1.3 76 1015.7 6.0 NE 14.5 0.8 1.7
14:59 2.6 -1.2 76 1015.6 5.4 NE 14.5 0.8 1.7
15:00 2.6 -1.2 76 1015.6 4.5 NE 14.5 0.0 1.7
15:01 2.6 -1.2 76 1015.7 9.8 NE 12.1 0.0 1.7
15:02 2.7 -1.1 76 1015.7 9.8 N 12.1 0.0 1.7
15:03 2.7 -1.1 76 1015.7 9.2 N 12.1 0.8 1.8
15:04 2.7 -1.1 76 1015.8 9.2 N 12.1 0.8 1.8
15:05 2.7 -1.1 76 1015.7 5.4 N 12.1 0.8 1.8
15:06 2.7 -1.1 76 1015.6 7.6 NE 12.1 0.8 1.8
15:07 2.6 -1.2 76 1015.7 9.8 NE 11.4 0.8 1.8
15:08 2.6 -1.2 76 1015.7 9.8 NE 11.4 0.0 1.8
15:09 2.6 -1.2 76 1015.8 12.1 N 12.1 0.8 1.8
15:10 2.6 -1.2 76 1015.6 13.0 N 13.0 0.8 1.8
15:11 2.5 -1.3 76 1015.8 5.4 N 13.0 0.8 1.8
15:12 2.5 -1.3 76 1015.7 6.9 N 13.0 0.8 1.8
15:13 2.5 -1.3 76 1015.7 9.2 NE 13.0 0.8 1.8
15:14 2.6 -1.2 76 1015.8 7.6 NE 13.0 0.0 1.8
15:15 2.7 -1.3 75 1015.8 8.3 NE 13.0 0.0 1.8
15:16 2.7 -1.1 76 1015.7 7.6 NW 13.0 0.0 1.8
15:18 2.8 -1.2 75 1015.7 11.4 N 13.0 0.0 1.8
15:19 2.8 -1.2 75 1015.7 9.2 N 13.0 0.8 1.9
15:20 2.8 -1.2 75 1015.7 7.6 N 13.0 0.8 1.9
15:21 2.9 -1.1 75 1015.7 12.1 NE 12.1 0.8 1.9
15:22 2.9 -1.1 75 1015.7 11.4 N 12.1 0.8 1.9
15:23 2.9 -1.1 75 1015.7 9.2 N 12.1 0.8 1.9
15:24 2.8 -1.4 74 1015.6 8.3 NE 12.1 0.0 1.9
15:25 2.9 -1.3 74 1015.6 12.1 NE 12.1 0.8 2.0
15:26 2.9 -1.3 74 1015.8 13.0 N 13.0 0.8 2.0
15:27 2.9 -1.3 74 1015.7 9.8 NE 13.0 0.8 2.0
15:28 2.9 -1.3 74 1015.8 8.3 N 13.0 0.8 2.0
15:30 2.9 -1.1 75 1015.8 9.2 N 13.0 0.0 2.0
15:31 3.0 -1.0 75 1015.7 7.6 N 13.0 0.0 2.0
15:32 3.1 -1.1 74 1015.9 6.9 NE 13.0 0.0 2.0
15:33 3.2 -1.0 74 1015.8 6.9 NE 13.0 0.8 2.0
15:34 3.3 -0.7 75 1016.0 9.2 NE 13.0 0.8 2.0
15:35 3.3 -0.9 74 1015.9 9.8 N 13.0 0.8 2.0
15:36 3.3 -0.9 74 1015.7 10.7 NW 10.7 0.8 2.0
15:38 3.2 -1.0 74 1015.9 11.4 NE 12.1 0.0 2.0
15:39 3.2 -1.2 73 1015.9 7.6 NE 12.1 0.0 2.0
15:40 3.2 -1.2 73 1015.9 6.0 NE 12.1 0.0 2.0
15:41 3.2 -1.0 74 1016.1 7.6 NE 12.1 0.0 2.0
15:42 3.4 -0.8 74 1015.8 6.9 N 12.1 0.0 2.1
15:43 3.4 -0.8 74 1016.0 7.6 NE 12.1 0.8 2.1
15:44 3.4 -1.0 73 1016.0 10.7 NE 12.1 0.8 2.1
15:45 3.5 -0.9 73 1015.9 9.2 N 12.1 0.8 2.1
15:46 3.6 -0.8 73 1015.8 9.2 N 12.1 0.8 2.1
15:47 3.7 -0.7 73 1015.8 9.2 NE 12.1 0.8 2.1
15:48 3.8 -0.6 73 1016.0 9.2 NE 10.7 0.8 2.1
15:50 3.9 -0.5 73 1015.9 9.2 N 10.7 0.8 2.1
15:51 3.9 -0.5 73 1015.8 10.7 NE 10.7 0.8 2.1
15:52 3.9 -0.5 73 1015.8 8.3 N 10.7 0.8 2.1
15:53 3.9 -0.5 73 1015.8 9.8 NE 10.7 0.0 2.1
15:54 3.9 -0.5 73 1015.8 7.6 N 10.7 0.0 2.1
15:55 3.9 -0.5 73 1015.9 6.9 N 10.7 0.8 2.2
15:56 3.9 -0.5 73 1016.0 9.2 N 10.7 0.8 2.2
15:57 3.9 -0.5 73 1015.8 11.4 NE 11.4 0.8 2.2
15:58 3.8 -0.8 72 1015.7 7.6 NE 13.0 0.8 2.2
15:59 3.7 -0.9 72 1015.9 11.4 NE 13.0 0.8 2.2
16:00 3.7 -0.9 72 1015.9 11.4 N 13.0 0.0 2.2
16:01 3.6 -1.0 72 1015.8 11.4 NE 13.0 0.0 2.2
16:03 3.6 -1.0 72 1015.9 10.7 NE 13.0 0.8 2.3
16:04 3.6 -1.0 72 1015.9 10.7 NE 13.0 0.8 2.3
16:05 3.6 -1.0 72 1016.0 15.2 N 15.2 0.8 2.3
16:06 3.6 -1.0 72 1016.1 9.8 N 15.2 0.8 2.3
16:07 3.6 -1.0 72 1015.9 11.4 N 15.2 0.0 2.3
16:08 3.6 -1.0 72 1015.8 12.1 NE 15.2 0.0 2.3
16:09 3.6 -1.0 72 1015.9 7.6 NE 15.2 0.0 2.3
16:11 3.7 -0.9 72 1015.9 9.8 NE 15.2 0.0 2.3
16:12 3.7 -0.7 73 1015.9 11.4 NE 15.2 0.8 2.3
16:13 3.7 -0.7 73 1015.9 9.8 N 15.2 0.8 2.3
16:14 3.8 -0.8 72 1015.9 6.0 NW 15.2 0.8 2.3
16:15 3.9 -0.5 73 1015.8 8.3 NE 12.1 0.8 2.3
16:16 3.9 -0.5 73 1016.0 13.6 N 13.6 0.8 2.3
16:18 4.0 -0.6 72 1016.1 15.2 N 15.9 0.8 2.4
16:19 3.9 -0.7 72 1016.0 13.0 N 15.9 0.8 2.4
16:20 3.8 -0.8 72 1016.0 13.6 NE 15.9 0.8 2.4
16:21 3.8 -0.8 72 1016.0 13.0 N 15.9 0.8 2.4
16:23 3.7 -0.9 72 1016.1 10.7 N 15.9 0.0 2.4
16:24 3.6 -1.0 72 1016.0 9.2 N 15.9 0.0 2.4
16:26 3.5 -1.1 72 1016.1 7.6 NW 15.9 0.0 2.4
16:27 3.5 -1.1 72 1016.3 8.3 N 15.9 0.0 2.4
16:28 3.5 -1.1 72 1016.2 9.2 N 13.6 0.0 2.4
16:30 3.4 -1.2 72 1016.2 13.6 NE 15.2 0.0 2.4
16:31 3.3 -1.3 72 1016.2 10.7 NE 15.2 0.0 2.4
16:33 3.3 -1.3 72 1016.2 14.5 SW 15.2 0.8 2.5
16:34 3.2 -1.4 72 1016.3 13.0 NE 15.2 0.8 2.5
16:35 3.0 -1.5 72 1016.4 9.2 N 15.2 0.8 2.5
16:36 3.0 -1.5 72 1016.4 12.1 NE 15.2 0.8 2.5
16:37 3.0 -1.5 72 1016.4 13.0 NE 15.2 0.8 2.5
16:39 2.9 -1.6 72 1016.3 13.0 NE 15.2 0.0 2.5
16:40 2.9 -1.6 72 1016.4 10.7 NE 15.2 0.0 2.5
16:41 2.8 -1.6 73 1016.4 14.5 N 15.2 0.0 2.5
16:42 2.8 -1.6 73 1016.5 10.7 N 15.2 0.0 2.5
16:44 2.8 -1.6 73 1016.6 9.8 N 15.2 0.0 2.5
16:45 2.9 -1.5 73 1016.6 13.0 NE 15.2 0.0 2.5
16:46 3.0 -1.4 73 1016.5 11.4 N 15.2 0.0 2.5
16:47 3.0 -1.4 73 1016.5 9.8 NE 15.2 0.0 2.5
16:48 3.1 -1.3 73 1016.6 12.1 N 14.5 0.8 2.5
16:49 3.1 -1.3 73 1016.5 9.8 NW 14.5 0.8 2.5
16:50 3.2 -1.2 73 1016.6 8.3 NE 14.5 0.8 2.5
16:52 3.3 -1.1 73 1016.6 13.6 NE 14.5 0.8 2.5
16:53 3.3 -1.3 72 1016.4 14.5 NE 14.5 0.0 2.5
16:54 3.3 -1.3 72 1016.4 14.5 NE 14.5 0.0 2.5
16:55 3.3 -1.3 72 1016.6 9.8 N 14.5 0.0 2.5
16:56 3.3 -1.3 72 1016.5 14.5 N 14.5 0.0 2.5
16:57 3.4 -1.2 72 1016.5 14.5 NE 14.5 0.0 2.5
16:58 3.4 -1.2 72 1016.6 11.4 N 14.5 0.0 2.5
16:59 3.4 -1.2 72 1016.5 10.7 NW 14.5 0.0 2.5
17:00 3.4 -1.2 72 1016.7 9.2 NE 14.5 0.0 2.5
17:01 3.4 -1.2 72 1016.6 10.7 NE 14.5 0.0 2.5
17:03 3.3 -1.3 72 1016.5 11.4 NE 14.5 0.0 2.5
17:04 3.3 -1.3 72 1016.6 11.4 NE 14.5 0.0 2.5
17:05 3.2 -1.4 72 1016.7 9.8 N 14.5 0.8 2.6
17:06 3.2 -1.4 72 1016.7 10.7 N 14.5 0.8 2.6
17:07 3.1 -1.5 72 1016.6 9.8 NE 14.5 0.8 2.6
17:08 3.1 -1.5 72 1016.8 15.2 NE 15.2 0.8 2.6
17:09 3.0 -1.5 72 1016.8 10.7 NE 15.2 0.8 2.6
17:10 3.0 -1.5 72 1016.9 9.8 NW 15.2 0.0 2.6
17:11 2.9 -1.6 72 1016.8 6.9 NE 15.2 0.0 2.6
17:12 2.9 -1.6 72 1016.9 9.2 NE 15.2 0.0 2.6
17:13 2.9 -1.6 72 1016.8 9.2 N 15.2 0.0 2.6
17:14 2.8 -1.7 72 1017.0 9.8 N 15.2 0.0 2.6
17:15 2.8 -1.7 72 1017.0 8.3 NW 15.2 0.0 2.6
17:16 2.8 -1.7 72 1016.9 10.7 NE 15.2 0.0 2.6
17:17 2.7 -1.8 72 1017.0 13.6 NE 15.2 0.0 2.6
17:18 2.7 -1.8 72 1017.0 13.6 NE 13.6 0.0 2.6
17:19 2.6 -1.9 72 1017.0 10.7 N 13.6 0.0 2.6
17:21 2.6 -1.7 73 1017.2 7.6 NE 13.6 0.0 2.6
17:22 2.6 -1.9 72 1017.0 8.3 NE 13.6 0.0 2.6
17:23 2.6 -1.7 73 1017.1 8.3 N 13.6 0.0 2.6
17:24 2.6 -1.7 73 1017.1 8.3 NE 13.6 0.0 2.6
17:25 2.6 -1.7 73 1017.2 7.6 N 13.6 0.0 2.6
17:26 2.5 -1.8 73 1017.2 10.7 N 13.6 0.0 2.6
17:27 2.5 -1.8 73 1017.2 11.4 NE 13.6 0.0 2.6
17:28 2.5 -1.8 73 1017.2 9.8 N 13.6 0.0 2.6
17:29 2.5 -1.8 73 1017.2 10.7 N 12.1 0.8 2.6
17:30 2.5 -1.8 73 1017.2 8.3 NE 11.4 0.8 2.6
17:31 2.5 -1.8 73 1017.3 9.8 N 11.4 0.8 2.6
17:32 2.5 -1.8 73 1017.3 6.0 NE 11.4 0.8 2.6
17:33 2.4 -1.9 73 1017.4 4.5 N 11.4 0.8 2.6
17:34 2.4 -1.9 73 1017.4 9.8 NE 11.4 0.0 2.6
17:35 2.4 -1.9 73 1017.4 9.2 NW 11.4 0.0 2.6
17:36 2.5 -1.8 73 1017.5 9.8 NE 11.4 0.0 2.6
17:37 2.5 -1.8 73 1017.6 5.4 N 10.7 0.0 2.6
17:38 2.5 -1.8 73 1017.6 6.9 NE 10.7 0.0 2.6
17:39 2.5 -1.8 73 1017.4 5.4 N 10.7 0.0 2.6
17:41 2.5 -1.7 74 1017.6 6.9 NE 10.7 0.0 2.6
17:42 2.5 -1.7 74 1017.6 8.3 NE 10.7 0.0 2.6
17:43 2.6 -1.6 74 1017.7 6.9 NE 10.7 0.0 2.6
17:44 2.6 -1.6 74 1017.6 9.8 N 10.7 0.0 2.6
17:45 2.6 -1.6 74 1017.6 8.3 NE 10.7 0.0 2.6
17:46 2.6 -1.6 74 1017.5 10.7 NE 10.7 0.0 2.6
17:47 2.6 -1.7 73 1017.6 8.3 NE 10.7 0.0 2.6
17:48 2.6 -1.7 73 1017.6 6.0 NE 10.7 0.0 2.6
17:49 2.6 -1.7 73 1017.7 9.2 NW 10.7 0.0 2.6
17:50 2.6 -1.7 73 1017.6 6.9 N 10.7 0.0 2.6
17:51 2.5 -1.8 73 1017.7 11.4 NE 11.4 0.0 2.6
17:53 2.5 -1.8 73 1017.7 6.0 N 11.4 0.0 2.6
17:54 2.5 -1.8 73 1017.7 6.0 N 11.4 0.0 2.6
17:55 2.5 -1.8 73 1017.7 5.4 N 11.4 0.0 2.6
17:56 2.4 -1.9 73 1017.6 6.0 NE 11.4 0.0 2.6
17:57 2.4 -1.9 73 1017.8 9.2 NE 11.4 0.0 2.6
17:58 2.4 -1.9 73 1017.7 9.2 N 11.4 0.0 2.6
17:59 2.4 -1.9 73 1017.7 6.0 N 11.4 0.0 2.6
18:00 2.4 -1.8 74 1017.7 7.6 NE 11.4 0.0 2.6
18:01 2.4 -1.9 73 1017.7 8.3 NE 9.8 0.0 2.6
18:02 2.4 -1.8 74 1017.8 8.3 N 9.2 0.0 2.6
18:03 2.4 -1.8 74 1017.9 4.5 N 9.2 0.0 2.6
18:04 2.4 -1.8 74 1017.8 4.5 N 9.2 0.0 2.6
18:05 2.4 -1.8 74 1017.9 4.5 N 9.2 0.0 2.6
18:07 2.4 -1.8 74 1018.0 4.5 N 9.2 0.0 2.6
18:08 2.4 -1.8 74 1017.9 4.5 N 9.2 0.0 2.6
18:09 2.4 -1.8 74 1018.0 4.5 N 8.3 0.0 2.6
18:10 2.3 -2.0 73 1017.9 6.9 NE 8.3 0.8 2.7
18:11 2.2 -2.1 73 1018.0 7.6 N 8.3 0.8 2.7
18:13 2.2 -1.9 74 1017.9 5.4 NE 7.6 0.8 2.7
18:14 2.2 -1.9 74 1018.1 5.4 N 9.2 0.8 2.7
18:16 2.1 -2.0 74 1018.1 4.5 NE 9.2 0.0 2.7
18:17 2.1 -2.0 74 1018.1 7.6 N 9.2 0.0 2.7
18:19 2.0 -2.1 74 1018.1 6.0 N 9.2 0.0 2.7
18:20 2.0 -2.1 74 1018.2 5.4 N 9.2 0.0 2.7
18:21 1.9 -2.2 74 1018.3 4.5 N 9.2 0.0 2.7
18:22 1.9 -2.2 74 1018.2 5.4 N 9.2 0.0 2.7
18:23 1.9 -2.2 74 1018.2 5.4 N 9.2 0.0 2.7
18:24 1.8 -2.3 74 1018.5 6.0 NE 7.6 0.0 2.7
18:25 1.8 -2.3 74 1018.4 5.4 N 7.6 0.0 2.7
18:26 1.8 -2.3 74 1018.3 4.5 N 7.6 0.0 2.7
18:27 1.7 -2.4 74 1018.3 5.4 N 7.6 0.0 2.7
18:29 1.7 -2.4 74 1018.4 5.4 N 6.0 0.0 2.7
18:30 1.6 -2.5 74 1018.5 3.8 N 7.6 0.0 2.7
18:31 1.6 -2.5 74 1018.5 5.4 N 7.6 0.0 2.7
18:32 1.6 -2.5 74 1018.5 2.2 N 7.6 0.0 2.7
18:33 1.6 -2.5 74 1018.3 3.8 N 7.6 0.0 2.7
18:34 1.6 -2.5 74 1018.5 6.0 N 7.6 0.0 2.7
18:35 1.5 -2.6 74 1018.4 3.8 N 7.6 0.0 2.7
18:36 1.5 -2.4 75 1018.4 5.4 N 7.6 0.0 2.7
18:37 1.5 -2.4 75 1018.4 3.1 N 7.6 0.0 2.7
18:38 1.5 -2.4 75 1018.6 5.4 N 7.6 0.0 2.7
18:39 1.4 -2.5 75 1018.6 3.1 N 7.6 0.0 2.7
18:40 1.4 -2.5 75 1018.6 2.2 N 6.9 0.0 2.7
18:41 1.4 -2.5 75 1018.6 3.8 N 6.9 0.0 2.7
18:43 1.3 -2.6 75 1018.7 2.2 N 6.9 0.0 2.7
18:44 1.3 -2.6 75 1018.6 4.5 E 6.9 0.0 2.7
18:45 1.3 -2.6 75 1018.7 7.6 NE 7.6 0.0 2.7
18:46 1.3 -2.6 75 1018.9 4.5 N 7.6 0.0 2.7
18:47 1.2 -2.7 75 1018.8 3.1 N 7.6 0.0 2.7
18:48 1.2 -2.7 75 1018.8 5.4 N 7.6 0.0 2.7
18:49 1.2 -2.7 75 1018.8 4.5 N 7.6 0.0 2.7
18:50 1.2 -2.7 75 1018.9 3.1 N 7.6 0.0 2.7
18:51 1.2 -2.7 75 1018.7 2.2 N 7.6 0.0 2.7
18:52 1.1 -2.8 75 1018.8 2.2 N 7.6 0.0 2.7
18:53 1.1 -2.8 75 1019.0 3.1 N 7.6 0.0 2.7
18:54 1.1 -2.8 75 1018.9 3.8 N 7.6 0.0 2.7
18:55 1.1 -2.8 75 1018.9 5.4 N 5.4 0.0 2.7
18:57 1.0 -2.7 76 1018.8 3.8 N 5.4 0.0 2.7
18:58 1.0 -2.7 76 1019.0 3.8 N 5.4 0.0 2.7
18:59 1.0 -2.7 76 1018.9 4.5 N 5.4 0.0 2.7
19:00 1.0 -2.7 76 1019.0 3.8 N 5.4 0.0 2.7
19:01 0.9 -2.8 76 1019.0 3.1 N 5.4 0.0 2.7
19:02 0.9 -2.8 76 1018.9 3.8 NW 5.4 0.0 2.7
19:03 0.9 -2.8 76 1018.9 5.4 N 5.4 0.0 2.7
19:05 0.9 -2.8 76 1019.1 5.4 N 5.4 0.0 2.7
19:06 0.9 -2.8 76 1019.1 5.4 N 5.4 0.0 2.7
19:07 0.9 -2.8 76 1019.2 5.4 N 5.4 0.0 2.7
19:08 0.9 -2.8 76 1019.2 5.4 N 5.4 0.0 2.7
19:09 0.8 -2.9 76 1019.2 4.5 N 5.4 0.0 2.7
19:10 0.8 -2.9 76 1019.2 3.8 N 5.4 0.0 2.7
19:11 0.8 -2.9 76 1019.3 2.2 N 5.4 0.0 2.7
19:12 0.7 -3.0 76 1019.2 2.2 N 5.4 0.0 2.7
19:13 0.7 -2.9 77 1019.2 3.1 N 5.4 0.0 2.7
19:14 0.7 -3.0 76 1019.2 3.8 N 5.4 0.0 2.7
19:15 0.7 -2.9 77 1019.3 3.1 N 5.4 0.0 2.7
19:17 0.7 -2.9 77 1019.2 3.8 N 5.4 0.0 2.7
19:18 0.7 -2.9 77 1019.2 3.1 N 5.4 0.0 2.7
19:19 0.6 -3.0 77 1019.3 4.5 N 5.4 0.0 2.7
19:20 0.6 -3.0 77 1019.5 3.1 N 5.4 0.0 2.7
19:21 0.6 -3.0 77 1019.3 4.5 N 4.5 0.0 2.7
19:22 0.6 -3.0 77 1019.4 2.2 N 4.5 0.0 2.7
19:23 0.6 -3.0 77 1019.4 3.8 N 4.5 0.0 2.7
19:24 0.5 -3.1 77 1019.3 2.2 NW 4.5 0.0 2.7
19:25 0.6 -3.0 77 1019.3 3.8 NW 4.5 0.0 2.7
19:27 0.5 -3.1 77 1019.5 3.1 N 4.5 0.0 2.7
19:28 0.5 -3.1 77 1019.4 3.1 N 4.5 0.0 2.7
19:29 0.5 -3.1 77 1019.4 3.1 N 4.5 0.0 2.7
19:30 0.5 -3.1 77 1019.5 5.4 N 5.4 0.0 2.7
19:31 0.5 -3.1 77 1019.6 3.1 N 5.4 0.0 2.7
19:32 0.5 -3.1 77 1019.4 3.1 N 5.4 0.0 2.7
19:33 0.5 -3.1 77 1019.4 3.8 NW 5.4 0.0 2.7
19:34 0.5 -3.1 77 1019.5 3.8 N 5.4 0.0 2.7
19:36 0.5 -3.1 77 1019.4 3.1 N 5.4 0.0 2.7
19:37 0.4 -3.0 78 1019.5 2.2 N 5.4 0.0 2.7
19:38 0.4 -3.0 78 1019.4 5.4 NE 5.4 0.0 2.7
19:39 0.4 -3.0 78 1019.4 5.4 N 6.0 0.0 2.7
19:40 0.4 -3.0 78 1019.5 3.8 NE 6.0 0.0 2.7
19:42 0.4 -3.0 78 1019.6 3.8 N 6.0 0.0 2.7
19:43 0.4 -3.0 78 1019.4 6.9 NW 6.9 0.0 2.7
19:44 0.4 -3.0 78 1019.4 6.9 NW 6.9 0.0 2.7
19:45 0.4 -3.0 78 1019.5 3.1 N 6.9 0.0 2.7
19:46 0.4 -3.0 78 1019.5 3.1 N 6.9 0.0 2.7
19:47 0.3 -3.1 78 1019.6 3.1 N 6.9 0.0 2.7
19:48 0.4 -3.0 78 1019.5 6.0 N 6.9 0.0 2.7
19:49 0.3 -3.1 78 1019.5 3.1 NE 6.9 0.0 2.7
19:50 0.3 -3.1 78 1019.6 4.5 N 6.9 0.0 2.7
19:52 0.4 -3.0 78 1019.6 4.5 N 6.9 0.0 2.7
19:53 0.4 -3.0 78 1019.6 2.2 N 6.9 0.0 2.7
19:54 0.4 -3.0 78 1019.6 3.1 N 6.0 0.0 2.7
19:55 0.4 -3.0 78 1019.7 5.4 NW 6.0 0.0 2.7
19:56 0.4 -3.0 78 1019.7 6.9 N 6.9 0.0 2.7
19:57 0.4 -3.0 78 1019.8 4.5 N 6.9 0.0 2.7
19:58 0.4 -3.0 78 1019.8 3.8 N 6.9 0.0 2.7
19:59 0.4 -3.0 78 1019.8 3.1 N 6.9 0.0 2.7
20:00 0.4 -3.0 78 1019.8 4.5 N 6.9 0.0 2.7
20:01 0.4 -3.0 78 1019.9 4.5 N 6.9 0.0 2.7
20:03 0.4 -3.0 78 1019.8 7.6 N 7.6 0.0 2.7
20:04 0.4 -3.0 78 1019.9 5.4 N 7.6 0.0 2.7
20:05 0.4 -3.0 78 1019.9 5.4 N 7.6 0.0 2.7
20:06 0.4 -3.0 78 1019.8 5.4 N 7.6 0.0 2.7
20:07 0.4 -3.0 78 1019.8 5.4 N 7.6 0.0 2.7
20:08 0.4 -3.0 78 1020.0 5.4 N 7.6 0.0 2.7
20:09 0.3 -2.9 79 1019.9 5.4 N 7.6 0.0 2.7
20:11 0.3 -3.1 78 1020.0 3.1 N 7.6 0.0 2.7
20:12 0.3 -2.9 79 1019.9 3.1 N 7.6 0.0 2.7
20:14 0.3 -2.9 79 1020.0 4.5 NE 5.4 0.0 2.7
20:15 0.3 -2.9 79 1020.1 5.4 NE 5.4 0.0 2.7
20:17 0.2 -3.0 79 1020.0 6.0 N 6.0 0.0 2.7
20:18 0.2 -3.0 79 1020.1 5.4 N 6.0 0.0 2.7
20:20 0.1 -3.1 79 1020.0 3.8 N 6.0 0.0 2.7
20:22 0.2 -3.0 79 1020.1 4.5 NE 6.0 0.0 2.7
20:23 0.2 -3.0 79 1020.0 5.4 N 6.0 0.0 2.7
20:25 0.2 -3.0 79 1020.1 6.9 N 6.9 0.0 2.7
20:27 0.2 -3.0 79 1020.1 6.0 N 6.9 0.0 2.7
20:28 0.2 -3.0 79 1020.1 6.0 N 6.9 0.0 2.7
20:29 0.2 -3.0 79 1020.1 3.8 N 6.9 0.0 2.7
20:30 0.2 -3.0 79 1020.1 4.5 N 6.9 0.0 2.7
20:31 0.2 -3.0 79 1020.2 5.4 NE 6.9 0.0 2.7
20:32 0.2 -3.0 79 1020.2 6.0 NE 6.9 0.0 2.7
20:33 0.2 -3.0 79 1020.2 6.0 NW 6.9 0.0 2.7
20:34 0.2 -3.0 79 1020.1 4.5 NE 6.9 0.0 2.7
20:36 0.2 -3.0 79 1020.1 6.9 N 6.9 0.0 2.7
20:37 0.2 -3.0 79 1020.1 6.9 N 7.6 0.0 2.7
20:38 0.2 -3.0 79 1020.2 3.8 NE 7.6 0.0 2.7
20:39 0.2 -3.0 79 1020.1 7.6 NE 7.6 0.0 2.7
20:40 0.2 -3.0 79 1020.2 3.8 N 7.6 0.0 2.7
20:41 0.2 -3.0 79 1020.2 6.0 N 7.6 0.0 2.7
20:42 0.2 -3.0 79 1020.2 6.0 N 7.6 0.0 2.7
20:43 0.2 -3.0 79 1020.3 4.5 NE 7.6 0.0 2.7
20:44 0.3 -2.9 79 1020.4 4.5 NE 7.6 0.0 2.7
20:46 0.2 -3.0 79 1020.5 3.8 N 7.6 0.0 2.7
20:47 0.3 -2.9 79 1020.2 4.5 N 7.6 0.0 2.7
20:48 0.3 -2.9 79 1020.5 6.0 N 7.6 0.0 2.7
20:49 0.3 -2.9 79 1020.4 3.1 NE 7.6 0.0 2.7
20:50 0.3 -2.9 79 1020.4 3.1 N 6.0 0.0 2.7
20:52 0.3 -2.9 79 1020.5 4.5 N 6.0 0.0 2.7
20:53 0.3 -2.9 79 1020.4 4.5 N 6.0 0.0 2.7
20:54 0.3 -2.9 79 1020.4 4.5 N 6.0 0.0 2.7
20:55 0.2 -3.0 79 1020.5 6.0 NE 6.0 0.0 2.7
20:56 0.3 -2.9 79 1020.6 3.1 NE 6.0 0.0 2.7
20:57 0.3 -2.9 79 1020.6 3.8 N 6.0 0.0 2.7
20:58 0.3 -2.9 79 1020.5 5.4 N 6.0 0.0 2.7
20:59 0.3 -2.9 79 1020.5 4.5 N 6.0 0.0 2.7
21:01 0.3 -2.9 79 1020.6 4.5 N 6.0 0.0 2.7
21:02 0.3 -2.9 79 1020.5 5.4 N 6.0 0.0 2.7
21:03 0.3 -2.9 79 1020.6 3.8 N 6.0 0.0 2.7
21:04 0.3 -2.9 79 1020.6 5.4 N 6.0 0.0 2.7
21:05 0.3 -2.9 79 1020.5 5.4 N 6.0 0.0 2.7
21:06 0.3 -2.9 79 1020.6 5.4 N 6.0 0.0 2.7
21:07 0.3 -2.9 79 1020.6 5.4 N 6.0 0.0 2.7
21:09 0.3 -2.9 79 1020.6 5.4 N 6.0 0.0 2.7
21:10 0.3 -2.9 79 1020.6 6.9 N 6.9 0.0 2.7
21:11 0.3 -2.9 79 1020.6 3.8 N 6.9 0.0 2.7
21:12 0.3 -2.9 79 1020.6 4.5 N 6.9 0.0 2.7
21:13 0.3 -2.9 79 1020.8 5.4 NE 6.9 0.0 2.7
21:14 0.3 -2.9 79 1020.7 3.8 N 6.9 0.0 2.7
21:15 0.3 -2.9 79 1020.8 4.5 N 6.9 0.0 2.7
21:16 0.3 -2.9 79 1020.8 4.5 N 6.9 0.0 2.7
21:17 0.3 -2.9 79 1020.7 3.8 NE 6.9 0.0 2.7
21:19 0.3 -2.9 79 1020.7 5.4 N 7.6 0.0 2.7
21:20 0.3 -2.9 79 1020.7 5.4 N 7.6 0.0 2.7
21:21 0.3 -2.9 79 1020.9 3.1 N 7.6 0.0 2.7
21:22 0.3 -2.9 79 1020.8 4.5 N 7.6 0.0 2.7
21:23 0.3 -2.9 79 1020.7 5.4 N 7.6 0.0 2.7
21:24 0.3 -2.9 79 1020.6 4.5 N 7.6 0.0 2.7
21:26 0.3 -2.9 79 1020.8 2.2 N 7.6 0.0 2.7
21:27 0.3 -2.9 79 1020.9 7.6 N 7.6 0.0 2.7
21:28 0.3 -2.9 79 1020.9 5.4 N 7.6 0.0 2.7
21:29 0.3 -2.9 79 1020.9 5.4 NE 7.6 0.0 2.7
21:30 0.3 -2.9 79 1021.0 6.9 NE 7.6 0.0 2.7
21:31 0.3 -2.9 79 1020.9 5.4 N 7.6 0.0 2.7
21:33 0.3 -2.9 79 1020.9 6.0 N 8.3 0.0 2.7
21:34 0.3 -2.9 79 1020.8 3.8 NE 8.3 0.0 2.7
21:35 0.3 -2.9 79 1021.0 7.6 N 8.3 0.0 2.7
21:36 0.3 -2.9 79 1021.0 3.8 N 8.3 0.0 2.7
21:37 0.3 -2.9 79 1020.9 4.5 NE 8.3 0.0 2.7
21:38 0.3 -2.9 79 1021.0 5.4 N 8.3 0.0 2.7
21:39 0.3 -2.9 79 1021.1 5.4 N 8.3 0.0 2.7
21:41 0.3 -2.9 79 1021.1 5.4 NE 8.3 0.0 2.7
21:42 0.3 -2.9 79 1021.1 4.5 N 8.3 0.0 2.7
21:43 0.4 -2.8 79 1021.0 4.5 NE 8.3 0.0 2.7
21:44 0.4 -2.8 79 1021.1 5.4 N 8.3 0.0 2.7
21:45 0.3 -2.9 79 1021.1 6.0 NE 8.3 0.0 2.7
21:46 0.4 -2.8 79 1021.2 4.5 N 8.3 0.0 2.7
21:47 0.4 -2.8 79 1021.2 6.9 NE 8.3 0.0 2.7
21:48 0.4 -2.8 79 1021.0 8.3 NE 8.3 0.0 2.7
21:50 0.4 -2.8 79 1021.2 6.0 N 8.3 0.0 2.7
21:51 0.4 -2.8 79 1021.3 7.6 NE 8.3 0.0 2.7
21:52 0.4 -2.8 79 1021.2 7.6 NE 8.3 0.0 2.7
21:53 0.4 -2.8 79 1021.2 6.0 NE 8.3 0.0 2.7
21:54 0.4 -2.8 79 1021.1 6.9 N 8.3 0.0 2.7
21:55 0.4 -2.8 79 1021.2 6.9 N 8.3 0.0 2.7
21:57 0.4 -2.8 79 1021.3 6.9 N 8.3 0.0 2.7
21:58 0.4 -2.8 79 1021.3 6.0 N 8.3 0.0 2.7
21:59 0.4 -2.8 79 1021.4 5.4 N 7.6 0.0 2.7
22:00 0.4 -2.8 79 1021.4 7.6 NE 7.6 0.0 2.7
22:01 0.4 -2.8 79 1021.3 6.9 N 7.6 0.0 2.7
22:02 0.4 -2.8 79 1021.3 5.4 N 7.6 0.0 2.7
22:03 0.4 -2.8 79 1021.4 3.8 N 8.3 0.0 2.7
22:04 0.4 -2.8 79 1021.5 3.8 N 8.3 0.0 2.7
22:06 0.4 -2.8 79 1021.5 3.8 N 8.3 0.0 2.7
22:07 0.4 -2.8 79 1021.4 3.8 N 8.3 0.0 2.7
22:08 0.4 -2.8 79 1021.5 3.8 N 8.3 0.0 2.7
22:09 0.4 -2.8 79 1021.5 3.8 N 8.3 0.0 2.7
22:10 0.4 -2.8 79 1021.4 4.5 N 8.3 0.0 2.7
22:11 0.4 -2.8 79 1021.6 4.5 N 8.3 0.0 2.7
22:13 0.4 -2.8 79 1021.6 4.5 N 8.3 0.0 2.7
22:14 0.3 -2.9 79 1021.7 5.4 N 5.4 0.0 2.7
22:16 0.3 -2.9 79 1021.6 3.8 NE 5.4 0.0 2.7
22:18 0.3 -2.9 79 1021.6 5.4 N 5.4 0.0 2.7
22:19 0.3 -2.9 79 1021.6 6.0 N 6.0 0.0 2.7
22:21 0.3 -2.9 79 1021.6 3.1 NE 6.0 0.0 2.7
22:23 0.3 -2.9 79 1021.7 5.4 N 6.0 0.0 2.7
22:24 0.2 -3.0 79 1021.7 4.5 NE 6.0 0.0 2.7
22:26 0.2 -3.0 79 1021.6 3.8 N 6.0 0.0 2.7
22:27 0.2 -3.0 79 1021.7 4.5 N 6.0 0.0 2.7
22:28 0.2 -3.0 79 1021.7 3.8 N 6.0 0.0 2.7
22:29 0.2 -3.0 79 1021.5 3.1 N 6.0 0.0 2.7
22:30 0.2 -3.0 79 1021.6 3.1 N 6.0 0.0 2.7
22:31 0.2 -3.0 79 1021.7 3.1 N 6.0 0.0 2.7
22:33 0.2 -3.0 79 1021.7 5.4 N 6.0 0.0 2.7
22:34 0.2 -3.0 79 1021.7 3.1 N 6.0 0.0 2.7
22:35 0.1 -3.1 79 1021.8 2.2 N 6.0 0.0 2.7
22:36 0.1 -3.1 79 1021.7 6.0 N 6.0 0.0 2.7
22:37 0.1 -3.1 79 1021.8 6.9 N 6.9 0.0 2.7
22:38 0.1 -3.1 79 1021.7 5.4 NE 6.9 0.0 2.7
22:39 0.1 -3.1 79 1021.8 4.5 N 6.9 0.0 2.7
22:41 0.1 -3.1 79 1021.8 8.3 NE 8.3 0.0 2.7
22:42 0.1 -3.1 79 1021.9 6.0 N 8.3 0.0 2.7
22:43 0.1 -3.1 79 1021.8 6.9 NE 8.3 0.0 2.7
22:44 0.1 -3.1 79 1022.0 6.9 N 8.3 0.0 2.7
22:45 0.0 -3.2 79 1021.9 4.5 N 8.3 0.0 2.7
22:46 0.0 -3.2 79 1021.9 5.4 NE 8.3 0.0 2.7
22:47 0.1 -3.1 79 1021.9 7.6 N 8.3 0.0 2.7
22:48 0.1 -3.1 79 1021.9 5.4 NE 8.3 0.0 2.7
22:49 0.1 -3.1 79 1022.0 6.0 N 8.3 0.0 2.7
22:51 0.1 -3.1 79 1022.0 7.6 NE 8.3 0.0 2.7
22:52 0.0 -3.2 79 1021.9 7.6 NE 7.6 0.0 2.7
22:53 0.1 -3.1 79 1022.0 4.5 N 7.6 0.0 2.7
22:54 0.0 -3.2 79 1021.9 9.8 NE 9.8 0.0 2.7
22:55 0.0 -3.2 79 1022.1 7.6 NE 9.8 0.0 2.7
22:57 0.0 -3.2 79 1022.1 7.6 NE 9.8 0.0 2.7
22:58 0.0 -3.2 79 1022.2 8.3 NE 9.8 0.0 2.7
22:59 0.0 -3.2 79 1022.4 7.6 NE 9.8 0.0 2.7
23:00 0.1 -3.1 79 1022.1 8.3 NE 9.8 0.0 2.7
23:01 0.1 -3.1 79 1022.3 6.9 N 9.8 0.0 2.7
23:02 0.1 -3.1 79 1022.2 8.3 N 9.8 0.0 2.7
23:03 0.1 -3.1 79 1022.3 8.3 N 9.8 0.0 2.7
23:04 0.1 -3.1 79 1022.3 8.3 N 9.8 0.0 2.7
23:06 0.1 -3.1 79 1022.4 8.3 N 9.2 0.0 2.7
23:07 0.1 -3.1 79 1022.2 8.3 N 9.2 0.0 2.7
23:08 0.1 -3.1 79 1022.4 8.3 N 9.2 0.0 2.7
23:09 0.1 -3.1 79 1022.3 6.9 NE 9.2 0.0 2.7
23:10 0.1 -3.1 79 1022.2 9.2 NE 9.2 0.0 2.7
23:11 0.1 -3.1 79 1022.3 9.2 N 9.2 0.0 2.7
23:12 0.1 -3.1 79 1022.3 6.9 N 9.2 0.0 2.7
23:13 0.1 -3.1 79 1022.1 7.6 N 9.2 0.0 2.7
23:14 0.1 -3.1 79 1022.4 8.3 N 9.2 0.0 2.7
23:16 0.1 -3.1 79 1022.3 6.9 NE 9.2 0.0 2.7
23:17 0.1 -3.1 79 1022.2 6.0 N 9.2 0.0 2.7
23:18 0.1 -3.1 79 1022.3 7.6 NE 9.2 0.0 2.7
23:19 0.1 -3.1 79 1022.2 8.3 N 9.2 0.0 2.7
23:20 0.1 -3.1 79 1022.4 6.9 N 9.2 0.0 2.7
23:21 0.1 -3.1 79 1022.2 8.3 NE 9.2 0.0 2.7
23:22 0.0 -3.2 79 1022.4 4.5 NE 9.2 0.0 2.7
23:24 0.0 -3.2 79 1022.3 6.9 NE 9.2 0.0 2.7
23:25 0.0 -3.2 79 1022.5 9.2 N 10.7 0.0 2.7
23:26 0.0 -3.2 79 1022.5 9.8 N 10.7 0.0 2.7
23:27 0.0 -3.2 79 1022.6 9.2 NE 10.7 0.0 2.7
23:28 0.0 -3.2 79 1022.6 13.6 NE 13.6 0.0 2.7
23:29 0.0 -3.2 79 1022.5 13.0 NE 13.6 0.0 2.7
23:30 0.0 -3.2 79 1022.7 7.6 NE 13.6 0.0 2.7
23:31 0.0 -3.2 79 1022.6 9.2 NE 13.6 0.0 2.7
23:33 0.0 -3.4 78 1022.6 11.4 N 13.6 0.0 2.7
23:34 0.0 -3.2 79 1022.7 9.2 N 13.6 0.0 2.7
23:35 0.0 -3.4 78 1022.8 9.2 N 13.6 0.0 2.7
23:36 0.0 -3.4 78 1022.9 9.2 NE 13.6 0.0 2.7
23:37 0.0 -3.4 78 1022.8 11.4 N 13.6 0.0 2.7
23:38 0.0 -3.4 78 1022.9 12.1 NE 13.0 0.0 2.7
23:39 0.0 -3.4 78 1022.9 9.2 NE 12.1 0.0 2.7
23:40 0.0 -3.4 78 1023.0 9.2 NE 12.1 0.0 2.7
23:42 0.0 -3.4 78 1023.1 9.2 NE 12.1 0.0 2.7
23:43 0.0 -3.4 78 1023.1 6.0 NE 12.1 0.0 2.7
23:44 0.0 -3.4 78 1023.0 7.6 NE 12.1 0.0 2.7
23:45 0.0 -3.4 78 1023.1 5.4 NW 12.1 0.0 2.7
23:46 0.0 -3.4 78 1023.1 7.6 N 12.1 0.0 2.7
23:47 0.0 -3.4 78 1023.2 6.9 NE 12.1 0.0 2.7
23:49 0.0 -3.4 78 1023.0 8.3 NE 12.1 0.0 2.7
23:50 -0.1 -3.5 78 1023.2 6.9 N 9.2 0.0 2.7
23:51 -0.1 -3.5 78 1023.3 7.6 NE 9.2 0.0 2.7
23:53 -0.1 -3.5 78 1023.3 8.3 N 8.3 0.0 2.7
23:54 -0.1 -3.5 78 1023.4 8.3 NE 8.3 0.0 2.7
23:55 -0.2 -3.6 78 1023.3 8.3 NE 8.3 0.0 2.7
23:56 -0.1 -3.5 78 1023.4 8.3 N 8.3 0.0 2.7
23:57 -0.2 -3.6 78 1023.4 3.8 N 8.3 0.0 2.7
23:59 -0.2 -3.6 78 1023.4 8.3 NE 8.3 0.0 2.7

UK - WEATHER STATION TOPSITES - UK World Weather Websites

This is a private weather station, never base important decisions or events on data from this weather station. Although every effort has been made to make the data as accurate as possible it does not meet MetOffice standards. It is proved as a guide of local weather conditions. We accept no liability for any loss which may arise from use of the data.

Copyright © Carnkie Weather 2009 - 2018.